GFSCGP_sfc_wetblb_000.txt.gz
Wetbulb
50.87 48.70 45.76 46.23 47.14 46.11 45.17 43.86 43.23 45.32 47.93 47.82 47.38 46.80 48.44 50.72 51.71 51.62 52.05 51.64 52.74 55.77 56.64 57.30 57.60 58.70 60.93 63.65 64.18 63.98 62.46 59.70 60.69 60.43 57.99 58.18 57.37 58.09 58.64 58.64 58.63 58.72 58.49 58.36
48.19 44.88 46.49 47.77 47.35 45.37 44.71 43.40 43.31 45.87 47.01 47.80 47.48 46.74 48.45 49.86 50.32 51.61 52.26 52.42 53.20 54.34 55.15 55.88 57.29 58.45 59.30 60.93 61.21 59.17 57.64 57.67 57.66 58.48 57.91 57.73 57.15 57.69 57.70 57.91 57.89 57.64 56.44 56.24
45.95 45.32 46.75 46.34 47.00 45.67 44.58 43.27 43.69 43.42 46.57 48.23 46.86 46.15 46.63 48.48 50.50 51.45 52.21 52.89 53.45 53.66 53.80 54.67 55.97 56.99 58.06 57.49 57.64 57.36 57.30 57.15 56.84 56.96 57.05 57.62 57.97 57.06 55.76 55.25 55.00 54.77 54.94 54.72
46.21 47.42 46.61 46.45 45.22 46.44 42.66 45.79 45.66 44.68 44.30 42.58 47.20 41.39 45.16 46.54 47.67 49.39 50.65 51.91 52.62 53.09 53.59 54.03 54.48 55.41 56.15 57.13 57.68 56.93 56.42 56.14 55.53 55.76 55.24 54.67 53.57 52.40 53.49 53.74 54.03 53.81 54.08 53.82
43.47 45.87 46.21 45.31 44.60 47.05 44.55 47.06 45.44 45.12 44.79 44.45 44.33 42.58 44.69 47.20 45.57 47.14 49.43 50.88 51.94 52.69 53.39 53.53 54.06 54.77 55.39 56.29 56.14 56.58 56.27 55.62 55.07 54.50 54.69 54.13 53.34 53.39 53.66 53.35 52.32 52.17 52.61 52.97
46.84 49.30 48.67 47.31 47.42 47.12 48.15 45.41 45.50 46.18 45.94 39.95 41.99 41.78 42.65 45.71 44.62 46.92 49.35 50.72 51.61 52.49 52.33 53.32 54.31 54.82 54.93 56.24 56.26 55.88 54.96 54.20 54.84 54.53 53.74 53.01 52.74 52.56 51.77 51.07 50.20 50.46 50.82 51.10
45.65 46.22 48.91 49.49 46.41 48.73 48.19 44.17 40.36 38.06 38.54 37.74 41.69 40.75 42.48 45.34 47.10 47.93 48.63 50.14 51.70 52.95 52.68 52.66 53.01 53.73 54.41 54.62 54.59 53.45 53.60 53.01 53.90 53.62 51.65 51.97 52.04 51.97 50.98 50.37 49.49 48.71 48.75 49.15
41.85 39.71 46.22 48.79 46.20 44.15 44.76 44.30 39.27 30.08 34.38 37.16 41.73 38.09 42.92 47.50 48.88 49.03 49.49 49.83 50.74 51.45 52.62 52.45 52.75 53.44 53.77 53.44 53.96 53.82 52.25 51.89 52.18 51.34 51.22 51.87 52.49 52.01 50.70 49.94 48.82 47.97 47.92 48.85
41.48 40.37 47.31 47.24 48.21 47.10 43.91 41.88 44.20 37.66 33.22 36.15 41.01 42.29 45.87 47.29 47.42 48.17 48.18 49.22 49.64 50.63 51.04 51.62 52.42 53.10 53.32 53.28 51.85 53.26 52.56 52.57 52.82 52.48 52.82 52.21 52.10 50.60 49.18 48.51 48.15 47.92 48.59 48.11
43.98 39.68 44.32 46.04 48.10 48.41 46.43 46.56 40.44 41.50 31.52 28.31 37.10 38.24 40.12 43.85 45.25 46.27 47.35 48.65 49.83 51.10 51.75 52.25 52.81 51.88 52.44 53.50 53.76 54.23 53.96 53.06 52.68 52.39 51.68 50.76 49.86 49.15 47.74 47.06 46.53 47.07 47.52 47.91
45.34 42.59 41.53 44.77 44.02 43.35 44.74 43.51 41.93 41.64 39.76 32.76 30.84 36.91 46.19 44.87 45.91 45.76 47.89 49.00 49.99 50.76 51.62 52.15 52.70 53.07 53.29 53.79 53.48 52.95 53.00 52.11 51.31 50.71 49.84 49.00 48.21 46.89 46.55 46.46 46.18 46.20 46.46 45.54
45.98 43.47 38.50 39.83 45.05 46.77 45.90 43.05 41.99 37.05 31.57 37.37 35.67 36.34 47.21 47.66 47.52 47.66 48.35 48.63 50.23 51.21 51.84 52.09 52.42 52.37 52.55 52.14 51.99 51.93 51.17 49.88 49.11 47.75 47.37 47.21 46.61 46.41 45.76 45.64 45.22 45.11 44.50 44.53
46.61 42.12 36.16 37.92 42.55 45.16 43.11 43.70 43.02 41.00 39.55 35.21 32.76 37.59 46.76 47.53 47.68 48.57 48.16 48.77 49.63 50.27 50.68 51.12 51.71 51.31 50.89 50.41 49.46 47.29 46.67 47.08 46.89 46.59 46.22 45.81 45.77 45.49 44.63 44.01 43.50 43.11 42.35 41.84
47.34 43.04 38.74 34.81 37.37 40.92 38.19 40.12 42.00 41.06 35.92 36.21 37.46 39.72 43.89 45.28 45.77 47.22 47.63 48.82 49.56 49.65 49.72 49.93 49.35 49.24 48.00 45.87 45.87 46.31 46.77 46.41 45.90 45.56 44.93 44.63 44.60 44.07 42.93 42.05 41.83 41.79 41.62 41.09
47.27 38.46 41.04 41.31 41.86 41.53 40.48 39.97 40.60 39.19 39.95 35.72 38.91 39.63 43.12 45.04 45.62 46.94 47.85 48.69 48.28 48.06 48.05 47.72 47.49 46.73 46.90 46.42 46.89 47.17 46.20 45.20 45.27 44.36 43.49 42.09 42.28 42.01 41.77 41.44 40.84 40.60 39.89 38.88
45.76 39.43 38.95 36.65 39.92 40.49 38.23 40.57 40.98 41.01 41.31 40.97 40.97 40.06 45.45 46.14 47.21 46.56 46.57 46.40 46.06 46.29 45.96 45.45 43.03 43.18 44.64 45.18 46.26 45.68 44.35 44.49 44.37 43.16 41.14 40.85 41.26 40.86 39.87 39.61 39.24 38.51 37.70 37.41
42.94 41.25 37.54 34.29 37.21 37.31 34.29 38.37 40.25 40.85 42.19 41.62 37.30 42.28 45.16 44.67 45.03 46.16 46.46 46.20 44.87 44.30 43.73 41.54 42.26 44.32 44.91 45.84 46.76 44.73 44.27 44.24 43.29 41.42 40.30 40.42 40.69 38.86 38.53 38.04 37.35 36.84 36.60 36.95
38.95 39.69 37.05 34.94 35.17 30.32 39.05 44.06 43.51 41.27 42.48 43.87 43.41 43.44 44.66 45.83 46.19 47.96 46.20 44.21 41.00 41.21 41.80 42.48 43.69 43.67 45.30 47.24 46.17 44.96 44.31 43.27 42.07 40.86 40.20 40.37 39.01 37.59 37.45 36.83 36.17 36.27 36.36 35.59
44.08 40.99 34.05 31.88 31.94 36.59 39.10 41.28 40.52 39.08 39.47 43.74 42.90 44.42 45.61 46.64 46.34 45.12 42.51 41.22 43.31 42.37 43.54 43.64 44.30 44.70 45.53 46.52 45.16 44.15 43.02 42.30 40.76 40.04 39.14 39.03 38.32 36.96 36.19 35.76 35.52 36.06 35.38 35.01
40.45 40.52 39.77 34.44 29.90 28.67 39.08 42.01 44.11 44.05 36.09 44.28 44.35 43.27 42.39 44.52 38.28 38.67 43.86 42.33 41.55 43.74 44.01 43.33 43.22 44.41 45.56 45.65 44.53 43.62 42.36 41.70 40.12 39.55 39.59 39.33 38.48 36.67 35.54 35.60 35.83 35.95 35.61 34.09
34.96 34.72 33.72 33.60 31.58 35.85 42.87 43.27 44.36 33.80 37.27 44.55 42.01 41.54 41.58 39.23 39.53 41.89 42.34 42.07 43.39 43.16 43.10 42.95 42.45 42.11 43.77 44.89 44.11 42.29 41.27 39.01 39.59 39.99 39.68 39.25 38.27 36.31 36.21 36.26 36.45 35.81 34.62 33.05
36.92 36.71 33.05 33.76 30.55 28.84 43.25 43.13 37.61 43.39 43.61 42.10 42.49 43.30 42.33 42.34 42.11 41.52 41.24 41.20 41.44 41.83 41.94 41.99 40.97 41.07 42.52 43.60 43.06 41.22 39.08 39.72 40.04 40.13 39.37 38.34 37.30 36.34 35.94 36.12 35.94 34.68 33.62 31.00
36.50 40.46 38.26 37.72 39.10 45.81 46.86 44.77 46.29 44.37 42.91 44.68 43.02 43.43 42.55 41.11 40.00 39.67 39.83 40.50 41.20 41.44 41.11 41.12 40.41 40.22 41.46 42.41 42.81 39.61 39.21 39.82 39.25 38.30 37.66 37.35 36.45 36.16 36.23 35.41 34.49 32.87 31.87 28.82
43.22 44.76 40.16 39.89 43.16 44.62 46.53 47.72 46.82 45.38 43.06 42.40 42.63 42.70 40.89 39.57 39.31 39.68 39.97 40.22 40.16 40.10 39.41 40.10 39.15 38.71 39.04 41.20 41.47 39.99 39.56 38.99 37.61 36.67 36.63 36.57 35.84 34.92 35.65 34.95 33.27 32.04 29.54 27.47
44.41 44.15 41.24 39.64 43.45 45.07 45.33 46.05 44.53 43.85 43.42 42.17 43.27 41.58 40.00 39.23 38.99 39.06 38.75 38.68 38.60 38.71 39.13 38.99 38.21 37.97 37.90 39.60 39.07 38.43 37.53 37.11 35.82 35.64 35.33 34.93 34.57 34.44 33.99 33.48 32.34 30.57 29.90 27.05
45.75 43.19 39.02 36.90 43.58 43.40 43.40 43.55 44.58 43.31 43.35 42.04 39.89 39.21 40.09 39.92 39.13 38.92 37.96 38.30 38.16 38.06 38.54 37.95 38.12 37.75 37.66 37.44 36.97 36.82 35.81 34.97 34.02 32.62 33.52 34.21 33.69 34.07 32.66 31.82 31.31 26.60 25.28 24.10

GFSCGP_sfc_wetblb_003.txt.gz
Wetbulb
52.71 50.08 48.25 48.70 49.03 48.06 46.81 45.74 45.23 47.77 49.58 48.47 48.53 48.11 50.13 52.66 53.26 53.14 53.20 53.69 54.11 55.16 60.48 62.42 61.22 61.77 62.70 63.55 64.10 64.19 63.42 63.04 62.26 61.28 59.48 58.58 58.08 58.94 59.55 59.93 60.20 60.42 59.95 59.10
49.29 47.16 48.90 50.01 49.64 48.18 47.21 45.94 45.86 47.59 48.67 48.90 49.01 48.34 50.14 51.57 52.12 53.30 53.25 53.93 55.28 56.82 57.80 58.52 59.52 60.51 61.24 63.18 63.88 63.04 61.53 59.65 59.61 59.69 58.93 58.85 58.52 58.60 58.94 59.31 58.71 58.54 58.21 57.68
48.00 48.03 49.44 48.70 48.62 47.48 47.22 46.05 46.41 45.89 48.42 49.34 48.64 47.43 48.14 50.47 52.24 52.74 53.47 54.49 55.09 55.36 55.48 56.78 58.02 59.83 60.85 60.74 60.55 59.77 59.21 58.48 58.26 58.51 58.04 57.74 57.99 57.70 56.62 56.59 56.70 57.35 57.59 56.03
48.23 49.92 48.38 48.22 47.43 48.35 45.33 48.03 47.28 46.44 45.67 43.35 49.21 42.35 47.17 48.98 49.33 50.94 52.39 53.48 53.98 54.43 55.19 55.84 56.78 57.59 58.79 58.63 59.09 58.59 57.84 57.21 56.80 57.18 56.60 55.91 54.58 53.53 54.93 55.62 55.91 55.17 55.70 54.59
46.40 47.62 48.06 46.97 46.80 48.82 46.92 49.43 47.61 47.56 46.26 46.28 46.01 43.20 45.81 48.73 47.12 48.94 51.02 52.00 53.37 54.48 55.34 55.51 56.03 56.71 57.52 58.13 58.16 58.24 57.65 56.77 56.73 56.08 55.73 54.97 54.86 55.32 55.87 55.45 54.67 54.41 54.61 53.76
48.91 51.51 50.55 49.26 49.62 49.23 50.66 48.67 48.04 48.67 47.21 41.07 45.15 43.60 44.89 46.93 47.65 48.60 50.70 52.06 53.07 53.72 54.70 55.23 56.09 56.61 56.83 57.81 57.88 57.60 56.53 55.36 55.72 55.31 55.88 55.76 53.45 52.95 51.98 52.32 51.32 51.49 51.72 51.55
48.15 48.05 50.69 51.00 48.88 50.88 49.77 47.16 41.97 39.76 39.93 39.11 44.86 41.95 44.78 47.89 49.25 50.12 50.03 51.51 53.10 54.39 54.36 54.39 54.62 55.35 55.66 55.59 55.90 55.91 55.49 55.40 56.43 56.16 54.93 53.76 53.14 53.26 52.51 51.79 50.88 49.72 49.06 49.36
44.12 41.91 47.66 49.87 48.15 46.12 46.45 46.72 41.14 32.68 36.26 39.52 44.69 39.40 44.63 49.66 50.69 50.79 51.05 51.54 52.52 53.20 54.17 54.03 54.45 55.11 55.04 55.41 56.09 56.48 55.83 54.50 55.43 54.99 54.53 54.70 53.84 52.94 51.95 51.25 49.58 48.38 48.45 49.28
43.62 43.00 48.90 49.00 50.38 49.29 46.29 43.74 46.43 40.62 38.63 37.84 41.83 44.51 48.27 49.20 49.03 49.45 49.72 50.68 51.58 52.33 52.79 53.08 54.16 54.37 55.11 55.45 55.95 55.73 55.22 55.18 55.21 54.85 54.46 53.44 52.68 51.24 50.06 49.35 48.93 48.44 49.00 48.17
45.73 42.06 46.32 47.83 49.93 50.14 48.35 48.48 42.34 42.88 32.57 30.18 38.61 39.64 41.83 45.18 46.51 48.25 48.78 49.72 51.07 52.41 52.78 53.67 54.49 54.79 55.25 55.46 55.75 55.77 55.27 54.63 54.60 54.21 52.87 51.28 50.63 50.19 49.06 48.44 47.79 47.72 47.87 47.77
47.33 44.26 44.12 46.51 45.88 45.17 46.60 45.78 43.78 42.64 40.46 33.98 32.43 38.80 47.30 46.34 47.02 47.14 48.93 50.38 51.51 52.06 53.11 53.67 53.95 53.91 54.79 55.17 55.26 54.69 54.51 53.28 52.20 51.67 50.15 49.38 49.10 48.83 48.18 47.45 47.28 46.84 46.34 45.84
47.82 45.21 40.73 42.14 47.44 49.15 47.76 45.14 43.67 38.26 35.03 39.01 37.07 37.56 48.98 48.65 48.63 48.89 49.63 50.43 51.56 52.57 52.98 53.02 53.01 52.79 52.72 52.64 53.18 53.37 52.55 50.20 50.09 48.88 48.64 47.91 47.86 47.86 47.01 46.50 45.37 44.98 44.86 44.63
48.41 44.77 38.58 40.79 44.93 47.21 44.50 45.31 44.32 42.59 40.66 36.57 35.18 38.28 48.97 49.52 48.70 49.60 48.86 50.59 50.84 50.88 50.87 51.49 51.91 52.49 52.19 51.86 51.79 50.83 50.23 48.74 48.29 48.12 47.21 46.72 46.28 45.90 45.47 44.35 43.98 43.58 43.26 42.94
48.11 45.13 40.34 36.92 39.88 42.89 40.35 42.08 43.33 42.72 37.30 38.09 38.94 41.32 45.28 46.76 47.31 48.40 49.13 49.91 49.17 49.33 49.52 49.80 49.43 49.54 49.51 48.64 47.77 48.72 49.15 49.19 48.36 47.06 46.01 45.28 44.54 44.08 43.63 42.92 42.43 42.26 41.84 40.71
48.23 40.59 43.04 43.44 43.50 42.94 42.11 41.75 42.33 40.98 41.56 37.74 40.67 41.31 44.22 46.64 47.08 48.20 49.48 48.88 48.72 47.91 48.44 48.03 48.08 48.03 47.03 47.18 47.87 47.89 48.35 48.02 47.83 46.24 45.63 44.10 43.45 43.20 42.72 41.68 41.17 41.06 40.23 39.43
47.48 41.22 41.42 38.88 42.60 41.98 39.96 42.07 42.56 42.48 42.73 42.63 42.69 41.77 47.81 48.69 48.97 48.33 47.26 47.57 46.68 46.92 47.14 46.38 46.65 46.19 46.12 46.07 46.24 47.21 47.64 47.38 47.04 45.68 44.36 43.60 42.76 42.19 41.24 40.51 40.00 39.32 38.77 38.51
44.66 43.02 39.10 35.47 40.85 39.29 35.64 41.16 41.89 42.53 43.92 43.24 39.24 43.58 47.23 46.45 45.92 44.97 45.05 46.98 46.65 45.44 44.38 45.83 45.58 45.48 45.55 45.61 45.96 46.15 46.93 47.00 44.94 44.78 43.91 42.78 41.84 41.01 40.03 39.44 38.67 37.90 37.66 37.93
43.64 41.49 39.63 35.68 35.74 31.38 42.04 46.20 45.59 43.12 43.96 45.49 45.36 45.80 46.65 45.24 46.91 46.56 46.88 45.03 44.59 44.67 44.68 44.98 45.28 44.95 44.74 45.09 45.75 46.87 46.61 45.62 44.72 43.48 42.70 42.16 41.17 40.47 39.77 38.57 37.84 37.61 37.58 36.94
47.43 43.37 36.75 34.28 34.34 38.27 41.25 42.80 42.26 40.90 40.79 46.14 45.26 46.27 46.46 47.47 47.13 45.03 46.89 46.57 45.10 44.92 45.38 45.20 45.05 44.17 43.96 43.89 44.84 45.32 44.74 44.29 43.62 42.46 41.86 41.17 41.15 39.92 38.34 37.44 37.31 37.38 36.85 36.48
44.33 45.00 41.14 36.17 31.03 30.02 40.86 45.13 46.47 46.16 36.88 46.31 46.19 45.00 43.01 44.63 39.05 42.31 45.54 45.70 45.03 45.07 44.64 44.12 44.38 44.02 43.26 43.11 43.71 42.98 42.89 42.59 41.68 41.57 40.89 41.02 40.78 39.38 38.06 37.67 37.17 37.35 36.96 35.92
36.23 36.79 36.11 34.90 32.97 36.90 44.45 45.30 46.94 35.07 38.37 46.92 45.86 44.14 44.04 41.20 42.58 44.82 45.35 44.32 44.29 43.84 43.71 44.09 43.52 42.12 42.28 42.90 42.74 41.65 41.57 40.83 41.61 41.22 40.67 40.55 40.33 39.40 38.53 37.65 37.61 36.76 36.25 35.49
38.12 36.77 33.77 36.28 32.62 30.11 46.06 44.86 39.19 44.96 47.83 46.40 44.57 44.48 43.70 44.08 44.22 43.81 42.86 42.40 42.84 42.70 42.74 42.62 41.31 41.09 41.75 41.97 41.46 40.50 40.01 41.74 41.30 40.57 39.99 39.33 39.30 38.37 37.67 37.23 36.81 36.28 35.16 33.60
38.72 42.48 40.33 40.20 40.16 46.71 47.63 45.23 49.15 48.55 46.18 45.02 44.55 43.87 43.62 43.80 42.33 42.08 41.54 41.94 42.14 41.88 41.39 41.33 40.45 40.16 40.68 41.13 40.85 39.07 40.90 41.40 40.01 38.75 38.38 38.11 38.30 37.63 37.32 36.22 35.35 34.35 34.11 31.78
45.26 47.85 42.92 42.07 44.54 45.48 46.23 48.45 48.31 48.26 46.59 45.37 45.47 45.66 44.66 42.26 41.87 41.24 41.49 41.48 40.84 40.73 40.06 40.35 39.61 39.00 39.00 40.26 40.09 40.06 40.35 39.91 38.85 37.15 37.00 37.21 36.56 35.74 36.35 36.13 35.05 33.71 31.89 29.16
46.21 46.60 43.83 43.41 45.97 46.62 47.52 46.74 47.34 47.36 47.14 46.03 46.25 45.25 43.20 41.90 41.22 41.61 40.99 40.27 40.16 40.11 40.05 39.92 39.41 38.91 38.99 39.89 39.42 39.70 39.19 38.11 36.18 35.52 35.70 35.47 35.64 35.56 34.98 34.83 34.07 32.67 31.68 28.07
46.99 45.00 42.62 41.70 46.09 44.69 44.78 46.66 48.45 46.91 45.78 45.40 43.62 42.52 42.99 42.67 41.61 41.34 40.16 40.33 39.86 39.27 39.62 39.41 39.35 39.32 39.27 39.05 38.56 38.10 38.45 37.04 35.24 33.69 34.17 34.78 34.50 34.63 33.65 33.21 32.60 27.27 26.66 25.21

GFSCGP_sfc_wetblb_006.txt.gz
Wetbulb
52.20 48.85 46.65 48.12 48.86 47.96 46.97 45.48 44.76 47.74 49.45 47.39 47.25 48.19 49.64 52.21 52.48 53.38 54.95 53.96 54.80 55.91 59.87 60.86 61.97 62.13 62.67 63.45 62.88 61.51 62.31 61.76 61.18 60.45 58.26 57.04 56.21 57.29 57.93 58.08 58.54 57.67 57.95 56.73
48.18 46.48 48.84 49.82 49.18 47.92 47.02 45.43 45.47 47.71 48.99 47.33 48.12 47.23 49.79 51.20 51.86 52.80 52.84 53.84 55.58 56.99 57.34 58.73 59.92 61.33 62.36 61.69 61.65 60.79 60.63 59.45 58.09 57.53 57.57 57.25 57.01 56.82 56.96 57.54 56.65 57.20 56.19 55.52
47.23 47.80 49.80 48.52 48.58 46.87 47.31 45.48 45.97 45.26 48.24 49.12 47.20 46.28 47.39 50.28 51.49 52.31 53.25 54.31 55.07 55.07 55.37 56.75 58.11 58.80 59.55 58.86 58.65 57.62 57.05 56.40 56.46 57.47 56.14 55.65 55.57 54.69 54.02 54.29 54.55 54.95 54.95 54.58
48.19 49.76 48.63 48.12 47.64 47.71 44.43 48.94 47.23 45.99 44.69 41.38 47.68 39.29 45.68 48.19 48.85 50.68 51.81 52.94 53.21 53.88 54.99 55.85 56.79 56.80 56.89 57.06 57.69 57.02 56.97 56.21 56.26 56.38 55.18 53.98 52.65 52.29 54.19 54.81 54.06 54.21 53.85 53.22
46.70 48.19 48.34 47.45 47.07 48.51 46.74 49.31 47.29 46.89 44.99 44.61 45.08 42.61 45.23 48.16 46.43 48.29 50.30 51.84 52.93 54.21 54.57 54.70 55.37 55.96 56.43 57.21 57.56 57.47 56.83 56.13 56.15 55.40 54.61 53.56 53.92 53.53 53.52 53.00 52.45 51.78 51.72 50.92
48.87 51.64 50.26 49.18 49.82 49.27 50.62 48.96 48.33 47.88 46.01 40.65 44.00 43.33 42.19 45.03 46.86 48.34 50.35 51.74 52.86 53.57 54.23 54.68 55.70 56.33 56.04 57.11 56.98 56.68 55.82 55.36 55.85 55.42 55.62 53.48 51.97 51.43 50.65 50.57 49.50 48.32 48.18 48.23
48.16 48.11 50.69 50.70 48.50 50.93 49.19 46.66 41.13 39.50 39.98 38.22 45.55 42.02 43.79 47.86 49.37 49.98 50.06 51.12 52.89 54.21 54.64 54.53 54.60 54.64 55.37 55.90 56.31 56.16 55.70 54.99 55.44 54.92 53.52 53.36 52.59 51.85 50.27 48.98 47.49 46.45 45.89 46.18
43.55 41.12 47.56 50.24 47.87 45.43 47.04 45.51 40.99 32.51 34.35 37.91 44.10 38.69 42.21 48.97 50.17 50.71 51.10 51.45 52.44 53.10 54.17 53.81 54.23 54.70 54.85 55.42 55.78 56.10 54.95 54.03 54.39 54.38 53.53 53.40 51.96 49.72 48.94 48.21 46.60 45.88 45.60 45.58
43.51 42.76 49.11 48.89 49.57 48.60 46.11 42.58 45.86 41.18 38.52 36.79 40.13 44.18 47.19 48.73 48.36 49.34 49.49 50.29 51.20 52.27 53.00 53.26 54.28 54.47 55.11 55.01 55.13 55.03 54.61 53.98 54.10 54.19 52.74 50.39 49.43 49.08 48.19 46.98 46.98 46.04 46.29 46.01
45.50 42.03 46.24 47.36 49.87 50.07 47.28 47.89 41.33 43.07 33.12 30.11 36.83 39.25 39.31 44.78 46.36 47.98 48.40 49.16 50.58 52.46 53.09 53.78 53.22 54.20 54.27 54.27 54.36 55.02 54.22 52.69 51.83 49.95 48.48 48.28 47.86 48.74 48.10 47.31 45.84 45.20 44.61 44.36
47.48 45.39 43.78 47.02 45.42 44.27 45.71 44.45 44.01 42.64 40.53 33.28 31.64 36.47 46.08 46.14 47.16 47.09 48.50 49.82 50.97 51.60 52.13 52.47 52.76 52.94 53.47 53.32 53.24 52.63 50.88 50.10 49.63 49.43 48.25 47.94 47.55 47.18 46.69 45.72 44.31 43.60 43.32 42.87
46.78 45.02 42.15 42.72 47.21 48.58 46.88 44.83 43.68 38.81 35.87 39.52 37.18 35.81 48.65 48.52 48.88 48.87 48.74 49.83 51.11 51.65 51.16 51.44 51.63 51.25 51.16 50.93 50.91 50.52 50.09 49.54 49.09 48.46 47.84 46.54 46.55 45.47 44.40 44.06 42.73 42.36 41.48 42.17
47.62 45.12 39.68 40.56 44.98 47.22 43.89 45.30 44.16 43.62 41.22 35.46 34.49 36.77 48.94 48.09 48.20 48.98 48.34 49.79 49.84 50.16 50.27 50.59 50.26 50.23 49.77 49.38 49.25 48.29 48.86 49.04 48.75 48.21 46.87 46.00 44.62 43.33 42.46 42.27 42.10 41.81 40.87 40.65
48.05 44.98 40.96 36.84 39.64 42.89 40.39 42.26 43.42 42.18 37.62 36.99 37.61 39.72 44.46 45.78 46.12 47.50 48.26 49.10 48.96 49.01 49.07 49.21 48.92 48.54 48.13 47.31 47.00 47.48 47.30 48.42 47.95 47.22 46.13 44.64 43.44 42.12 41.24 41.34 40.40 39.94 39.73 38.31
48.12 41.59 43.10 42.73 42.77 42.72 41.65 41.31 41.95 40.44 41.19 36.29 39.50 40.07 43.78 45.78 46.47 46.43 47.52 47.91 47.97 47.65 47.60 47.32 46.79 47.02 46.70 46.01 46.47 46.40 46.51 47.60 47.25 45.84 44.98 44.37 43.63 42.38 41.85 40.66 39.82 39.44 38.61 37.86
48.09 42.33 42.10 39.51 42.80 42.02 39.56 41.26 41.59 41.84 42.03 41.87 41.89 41.16 47.25 47.49 47.95 46.57 46.15 46.57 46.20 46.06 45.48 45.57 46.10 45.29 45.33 45.19 44.77 44.46 44.90 46.00 47.46 45.23 44.15 44.82 43.78 42.26 41.00 40.25 39.57 38.27 37.38 36.75
45.48 43.83 39.61 36.12 39.54 38.77 35.83 40.81 41.98 42.40 43.75 42.68 38.51 43.29 46.77 45.38 45.48 45.76 45.77 46.40 44.74 44.26 44.47 44.16 44.46 44.70 44.13 43.07 43.22 42.73 43.60 44.73 45.14 44.22 44.31 43.97 41.56 40.44 40.71 40.00 39.05 37.23 35.53 35.40
43.38 41.59 39.53 35.62 35.91 31.56 41.91 45.96 45.43 42.96 43.89 44.88 44.61 45.59 46.28 45.58 46.29 47.06 46.52 44.66 43.49 43.60 43.65 43.95 43.84 43.38 43.56 43.57 43.02 42.76 42.56 42.40 42.30 42.57 43.20 42.40 41.63 40.60 40.27 39.14 38.14 36.93 35.57 34.44
47.90 43.37 34.80 34.30 33.57 37.22 40.52 43.33 42.17 40.22 39.95 45.44 45.27 45.62 45.73 45.72 45.76 44.17 45.32 45.18 44.16 44.03 43.98 43.22 43.64 43.37 43.12 42.14 42.30 41.57 40.99 41.15 41.30 41.04 41.04 40.76 40.59 39.64 38.75 37.64 36.99 35.70 34.45 33.80
45.61 45.88 41.61 34.47 30.61 28.25 40.93 45.26 47.08 46.05 35.62 46.73 46.04 44.34 43.45 44.04 37.71 40.49 44.99 44.80 44.14 43.62 43.32 42.92 42.89 42.57 41.29 41.29 41.14 40.17 39.47 39.43 39.24 40.17 40.24 39.63 39.64 39.05 38.04 37.45 36.23 34.93 34.28 33.79
35.48 37.84 35.17 34.68 32.37 35.97 43.82 46.17 47.00 34.41 37.60 46.25 46.08 44.61 43.87 41.26 42.26 44.28 45.29 43.68 43.25 42.99 42.75 42.76 41.95 40.60 40.55 40.81 40.48 38.80 38.75 37.94 40.54 40.66 40.13 39.68 39.08 38.02 38.02 36.84 35.47 33.77 32.67 31.54
35.32 35.14 32.87 35.82 32.31 29.69 46.44 45.11 39.02 45.01 47.84 46.89 45.93 45.18 44.29 44.18 44.49 44.12 43.19 41.88 42.00 41.55 41.53 41.36 40.01 39.51 40.20 40.51 39.64 38.42 37.63 39.49 40.04 40.05 39.07 38.40 38.18 37.96 37.37 34.92 33.39 32.87 31.22 29.90
38.90 42.96 40.39 39.76 38.85 47.09 48.36 46.42 48.52 47.60 46.91 45.36 45.25 45.18 44.79 43.96 43.47 42.34 41.20 41.55 41.63 40.88 40.35 40.64 39.51 39.11 39.81 40.33 40.00 38.09 38.56 39.09 38.54 38.22 37.03 37.03 36.82 36.76 35.97 32.60 31.38 30.42 29.97 27.47
44.96 47.23 44.07 43.25 45.09 45.89 47.63 48.76 48.27 48.35 47.02 46.70 46.49 45.68 45.59 42.79 42.22 41.02 41.31 41.23 40.50 40.09 39.51 39.70 38.94 38.34 38.62 39.63 39.97 39.17 39.10 38.78 37.59 35.86 35.26 35.43 34.48 33.76 33.82 33.65 31.95 29.94 28.02 26.40
45.91 46.34 44.22 43.31 45.92 46.97 47.39 47.31 47.71 46.73 47.32 46.42 46.46 45.92 43.57 42.10 41.11 41.26 40.28 39.95 39.92 39.60 39.64 39.38 38.60 38.01 38.03 39.02 39.11 39.06 37.84 37.45 35.75 34.84 34.21 32.77 32.35 32.58 32.27 32.49 29.25 29.03 27.43 25.87
46.23 43.50 41.64 40.45 46.65 46.04 45.82 46.53 46.54 45.48 45.13 45.93 44.72 42.59 42.83 42.53 40.63 40.41 39.21 39.48 39.04 38.01 38.51 38.10 38.28 38.01 38.07 38.33 38.01 38.10 37.61 36.54 33.90 31.76 31.49 31.71 31.09 31.14 30.73 30.25 29.42 28.72 27.17 26.69

GFSCGP_sfc_wetblb_012.txt.gz
Wetbulb
46.96 42.16 38.30 40.13 42.00 43.08 43.74 39.69 38.80 38.71 43.06 42.09 41.20 40.88 42.59 44.15 46.87 48.22 49.85 50.73 50.53 50.19 52.29 54.37 56.00 57.67 57.34 57.48 56.79 55.71 55.98 54.51 56.57 52.57 51.99 50.73 49.26 50.07 50.46 52.51 53.67 52.95 52.49 51.59
42.82 39.08 43.69 46.22 46.14 44.52 43.39 41.17 39.58 42.49 45.26 41.35 40.30 39.99 42.28 46.00 45.13 48.29 49.60 49.93 49.87 49.53 50.75 51.67 52.31 52.07 52.32 52.65 54.18 53.70 51.60 51.44 51.26 52.05 51.36 51.60 49.91 51.61 52.06 52.53 52.62 50.83 49.34 49.02
40.41 43.04 47.19 46.17 43.71 43.27 42.06 40.30 39.41 39.98 42.01 41.38 41.83 38.83 41.25 45.07 47.09 47.71 47.79 49.76 50.45 49.57 49.17 50.03 50.49 49.70 50.09 50.79 50.29 49.98 49.99 50.34 50.49 51.76 51.16 50.71 51.10 50.63 50.46 49.93 48.54 48.06 48.19 47.23
43.12 47.08 46.27 44.20 42.95 42.70 39.58 44.51 43.46 41.56 38.02 33.79 38.45 30.27 38.67 42.17 43.80 45.88 47.08 47.45 48.90 49.74 50.29 50.45 49.70 48.51 48.35 47.82 48.16 49.25 50.18 50.01 50.61 50.34 49.34 49.42 48.63 47.97 48.30 47.39 45.44 44.61 45.55 45.76
41.99 43.71 43.51 42.49 42.91 44.40 42.22 45.05 42.76 41.61 37.40 36.10 37.35 33.20 36.74 42.60 41.21 42.35 44.13 46.49 47.01 48.33 49.34 48.81 48.74 48.91 48.73 48.27 48.18 48.33 49.44 49.79 50.13 49.80 49.72 49.03 47.11 45.92 46.33 44.32 43.39 43.52 44.70 45.94
43.86 46.49 44.43 43.29 45.99 45.55 45.91 43.79 42.95 41.01 38.10 30.06 38.18 35.60 34.63 38.19 41.28 43.48 45.20 45.57 46.65 46.53 47.45 48.42 49.06 49.44 48.45 48.04 48.02 47.59 49.26 49.40 49.95 49.09 48.57 46.66 44.99 44.23 42.97 42.31 43.37 44.55 44.79 43.47
42.86 43.08 45.25 46.59 43.34 45.38 43.16 39.22 29.64 29.14 28.23 28.03 40.18 36.04 35.94 42.10 44.81 45.39 44.70 44.66 45.59 46.08 46.87 47.55 48.25 48.11 48.54 48.14 48.44 49.51 49.06 48.19 48.30 46.37 45.08 44.57 43.84 43.47 44.74 44.40 44.01 42.61 43.41 42.56
36.53 34.30 41.98 45.38 42.38 39.68 41.09 38.44 28.93 27.76 25.21 28.18 38.03 32.69 35.72 43.70 46.46 47.42 48.30 46.33 46.51 46.79 46.98 47.00 46.84 46.80 47.22 47.93 47.93 48.40 46.96 45.43 45.67 44.86 44.11 43.98 44.01 45.59 46.04 44.12 43.81 42.69 40.42 39.89
36.87 37.24 43.77 44.10 44.34 43.86 40.99 35.10 40.26 32.52 29.65 26.37 32.59 36.76 41.04 43.50 44.83 46.15 46.17 48.15 46.56 44.56 44.74 46.64 46.53 46.49 46.94 46.45 45.78 47.20 47.13 45.47 44.78 44.54 44.06 43.94 46.26 46.24 44.01 42.95 40.47 39.74 39.80 41.26
41.32 35.12 42.12 43.90 46.10 45.39 41.16 42.44 34.16 31.16 24.43 24.57 29.97 32.77 33.69 39.35 41.18 42.80 42.36 42.72 44.22 45.07 45.25 45.52 45.53 45.65 45.86 45.60 45.86 46.94 47.18 45.53 44.79 44.24 44.05 44.59 43.53 43.19 41.53 40.40 39.23 39.01 38.75 38.83
42.30 38.69 38.02 43.22 39.63 38.18 39.47 37.45 37.60 36.20 30.03 24.78 22.41 28.69 39.72 40.95 42.24 41.51 42.19 43.11 43.46 44.03 44.64 44.57 44.87 44.38 44.79 44.37 44.42 44.01 43.66 44.08 44.16 43.63 43.43 42.77 41.61 40.89 40.52 39.55 38.64 38.60 38.26 37.71
42.02 37.28 29.98 37.40 42.67 43.73 41.23 39.19 37.51 26.83 29.80 27.33 26.28 27.65 42.71 41.95 43.00 43.98 43.94 44.42 45.17 45.52 44.49 44.84 43.78 43.68 42.73 42.24 41.92 41.85 42.03 42.42 43.92 43.84 43.26 42.52 41.38 40.29 38.63 38.90 39.24 37.40 37.07 37.69
41.32 35.78 28.27 34.20 39.22 41.75 39.08 40.13 40.61 35.97 29.79 27.87 21.00 26.53 42.93 43.30 42.90 43.96 42.29 42.77 43.73 43.07 42.54 42.13 42.05 41.66 41.65 41.38 41.23 40.35 39.41 39.83 41.69 42.36 42.02 41.49 41.66 40.29 37.67 37.54 37.30 38.66 37.09 37.35
44.49 38.74 33.54 29.57 33.65 36.46 33.67 36.97 38.94 35.81 26.81 28.45 28.17 32.87 38.45 39.89 40.49 41.50 41.73 41.68 41.06 40.98 41.46 40.75 40.35 40.35 40.07 40.01 38.53 38.08 38.11 38.40 38.60 39.26 39.99 39.68 39.42 39.65 36.89 37.36 37.89 38.53 38.79 39.30
41.64 34.34 36.41 36.50 37.81 37.57 36.14 35.53 35.64 34.75 34.89 29.58 32.48 34.19 38.61 40.19 40.18 41.28 42.41 41.47 40.88 41.06 40.99 41.13 40.26 39.64 38.68 37.60 37.18 37.15 36.89 37.37 37.68 36.70 36.46 38.57 38.97 38.94 38.62 39.12 38.53 38.48 38.97 38.99
42.27 32.42 32.66 32.32 37.79 37.26 33.23 35.88 36.00 35.76 36.46 35.87 35.59 35.65 41.18 41.61 41.68 40.89 40.43 39.87 40.09 40.63 40.19 39.64 40.04 39.49 38.15 37.12 35.73 36.34 36.25 36.54 36.95 35.98 38.06 39.29 39.24 38.99 38.71 38.58 39.00 37.83 37.73 34.37
37.66 31.79 28.22 26.72 33.01 32.42 26.04 34.16 36.96 37.05 37.95 36.82 31.30 36.74 40.01 39.19 40.09 38.84 38.60 39.03 39.01 38.91 38.71 38.99 38.82 37.73 36.44 35.26 35.76 34.72 35.29 36.17 35.68 36.48 37.91 37.94 38.91 37.54 37.22 38.10 37.91 36.88 35.57 35.56
34.36 31.97 26.59 22.39 23.96 16.68 35.16 40.48 40.09 38.08 38.67 39.76 39.18 39.07 39.46 39.56 39.66 38.99 39.19 38.28 38.35 38.83 39.05 38.00 36.49 35.45 35.10 34.73 34.76 35.05 35.10 34.90 34.59 35.92 36.36 36.45 36.62 35.81 36.32 36.15 35.58 35.63 35.32 30.85
39.88 29.78 26.09 19.92 23.61 28.17 34.69 39.07 37.77 35.54 34.77 41.03 39.67 39.83 40.04 39.78 38.37 36.92 40.02 39.71 38.80 37.92 37.13 36.47 35.64 35.37 34.13 34.11 34.43 34.22 34.10 33.47 34.98 35.44 35.28 35.80 35.76 35.40 35.09 34.80 33.92 33.93 30.94 28.87
38.86 32.45 26.79 26.83 16.86 15.28 30.23 39.94 42.57 40.89 29.45 41.55 41.32 39.82 39.32 38.61 29.96 34.27 40.82 40.37 37.62 36.62 36.92 35.37 34.81 34.39 33.36 34.18 34.25 33.19 32.59 32.50 34.19 35.62 35.64 35.90 35.82 35.26 34.28 33.51 32.91 30.38 28.77 29.57
26.92 24.57 23.08 18.39 16.14 25.92 35.66 41.38 42.50 28.37 29.75 41.68 41.38 39.97 39.33 35.97 35.94 39.04 41.24 38.59 36.71 36.85 35.84 35.63 34.19 33.12 33.58 33.81 33.60 32.70 32.47 32.55 34.78 35.64 35.66 35.06 33.95 32.83 32.60 30.88 29.99 28.74 28.57 27.35
28.78 25.86 24.06 22.99 17.01 21.66 40.06 40.74 33.62 36.31 40.65 42.18 40.91 40.68 39.86 39.90 40.66 41.41 40.81 37.04 36.69 34.62 33.94 34.13 33.31 33.05 33.66 33.90 33.56 32.49 31.97 33.81 34.50 34.29 33.63 32.44 31.92 31.97 31.54 27.99 27.54 27.47 25.47 24.32
30.97 32.28 29.81 31.97 31.00 37.94 40.91 40.51 41.49 43.29 42.02 40.95 40.25 41.30 41.86 40.45 40.80 41.05 37.25 35.19 34.17 32.64 32.22 33.65 31.69 32.50 33.40 33.82 33.47 32.45 33.25 34.07 33.50 32.68 31.17 30.29 30.69 30.86 29.72 26.42 25.14 24.75 24.00 20.54
38.04 41.01 33.03 34.58 39.14 39.96 41.61 42.77 44.06 43.81 42.35 42.64 42.64 42.03 42.64 41.33 40.55 35.67 33.89 33.07 32.22 31.54 31.14 31.88 31.94 31.64 31.89 33.25 34.12 33.66 33.93 34.04 32.09 30.79 29.90 29.56 28.99 28.79 28.30 26.81 26.62 24.35 19.73 18.40
36.25 39.65 37.67 34.18 38.79 40.86 42.55 42.72 43.00 42.40 42.63 42.93 43.95 44.82 43.34 37.73 34.00 33.45 32.51 32.25 31.78 31.16 31.97 32.19 31.63 31.69 32.12 33.10 33.15 33.36 33.52 32.78 31.04 30.74 29.99 28.52 27.27 27.12 27.34 25.64 24.89 24.84 23.32 21.96
40.18 37.83 33.42 33.67 39.67 39.36 40.65 42.73 43.77 42.80 43.29 45.61 43.32 37.52 36.09 34.59 33.11 32.86 31.59 31.88 31.62 31.12 31.71 31.59 31.99 31.85 32.23 32.39 32.13 32.68 33.03 33.17 32.22 29.94 28.92 27.59 25.33 23.87 25.81 25.96 26.24 28.62 27.78 27.19

GFSCGP_sfc_wetblb_018.txt.gz
Wetbulb
44.00 40.36 37.06 38.62 39.14 38.89 38.59 36.38 35.00 34.59 39.33 39.17 37.84 38.21 40.37 44.86 44.92 44.49 46.18 47.18 48.42 49.40 52.83 54.84 55.49 55.79 55.89 56.65 58.91 58.73 58.08 57.48 56.59 51.58 50.85 49.93 49.98 51.77 50.60 47.62 48.85 49.57 47.83 45.75
40.71 37.28 41.10 43.64 42.82 40.94 39.07 37.09 35.80 37.84 40.98 40.27 39.57 37.61 41.14 43.55 44.23 44.40 45.63 46.73 48.02 48.57 50.24 52.08 52.92 53.10 53.46 55.02 55.77 55.49 55.99 53.14 51.26 51.41 50.88 51.48 50.01 48.71 49.50 47.23 45.31 45.27 44.81 44.60
38.40 40.03 44.07 42.86 40.79 40.68 39.15 37.27 35.64 36.56 39.42 39.61 38.37 36.08 38.66 43.13 45.59 46.28 45.86 46.31 48.09 48.77 49.39 51.23 52.17 50.24 48.99 47.71 48.55 49.40 49.46 49.63 50.66 51.49 48.38 47.79 48.10 47.90 46.64 44.06 42.31 43.19 44.09 43.73
41.53 43.84 42.22 40.73 40.32 40.00 36.34 40.91 39.87 37.78 35.74 32.17 36.48 29.39 36.10 39.78 42.33 44.12 44.84 44.75 46.27 48.04 47.99 47.73 47.14 45.37 45.84 44.85 45.59 46.48 47.36 47.43 47.92 47.52 47.22 46.68 45.53 44.70 43.74 41.90 41.24 42.08 43.17 43.26
38.94 40.31 40.64 39.93 39.38 41.42 38.89 42.17 40.09 37.69 34.69 32.97 34.12 31.48 33.13 40.47 39.58 41.86 43.19 44.68 44.85 45.19 46.21 46.26 46.38 45.65 44.74 44.78 44.77 46.12 47.17 46.77 46.77 46.54 46.25 44.62 43.23 42.66 41.84 41.17 41.37 41.56 42.46 44.62
40.49 42.72 41.69 40.07 42.81 42.14 42.65 41.00 39.41 37.52 34.67 28.47 33.58 31.93 31.15 35.59 39.38 41.38 43.40 44.85 44.85 44.58 44.46 44.80 45.54 45.85 45.12 46.28 46.91 46.22 44.85 44.03 44.34 44.32 43.73 43.00 41.93 41.20 40.66 40.82 41.34 42.74 41.99 41.59
39.86 39.92 41.77 43.07 40.20 41.47 40.66 36.27 28.27 27.78 26.75 26.80 35.20 32.36 33.50 39.62 41.61 43.79 43.50 44.00 44.68 44.69 44.10 44.31 45.00 46.10 46.17 45.01 44.23 44.35 43.61 43.06 43.44 43.47 43.29 42.98 42.30 41.58 41.21 41.10 40.92 40.41 40.61 40.46
33.05 31.22 38.60 42.22 39.23 37.35 36.44 36.40 28.72 27.10 24.66 26.92 34.47 30.17 34.40 40.36 43.36 45.05 45.00 44.08 44.22 44.00 44.99 44.69 45.01 43.70 42.83 43.03 42.73 42.85 43.06 42.79 43.17 43.32 42.45 42.02 41.94 41.81 41.93 41.33 40.66 40.64 40.27 39.28
33.86 33.79 40.51 41.02 41.33 41.14 36.85 32.46 36.97 30.44 28.02 25.68 29.72 33.86 38.51 40.95 41.40 42.77 42.78 42.96 42.88 42.70 42.77 43.18 43.54 43.03 43.12 43.41 43.45 43.18 43.03 42.67 43.32 42.95 42.15 41.72 41.54 41.25 41.44 41.04 39.94 39.08 38.72 39.58
38.82 33.20 38.62 40.69 42.26 41.95 38.53 40.30 31.32 28.98 23.14 23.43 26.99 29.34 30.80 36.80 39.51 40.61 40.57 40.52 41.09 41.66 42.07 42.73 42.92 43.05 42.79 42.67 44.44 44.78 45.05 43.41 42.93 42.05 41.48 41.51 40.93 40.70 39.95 38.99 38.32 37.61 37.48 37.95
38.66 35.78 34.71 38.69 36.86 35.14 36.91 34.19 33.37 32.72 27.71 22.51 19.83 27.13 35.89 39.63 41.28 39.48 39.98 41.07 41.35 41.27 41.85 42.33 42.50 42.43 42.38 42.66 43.49 42.41 40.41 41.01 40.28 39.33 39.58 39.17 38.62 38.28 37.89 37.70 37.16 37.00 37.04 37.28
38.90 35.17 29.57 33.44 39.16 40.53 37.56 34.86 33.58 25.47 27.02 25.50 24.48 25.65 37.28 39.52 40.23 40.38 40.37 41.51 41.26 41.50 41.05 41.33 41.60 41.93 42.45 42.15 41.22 38.56 37.51 37.98 37.51 37.66 37.46 36.87 37.26 37.64 37.69 36.42 36.47 36.43 36.30 36.64
39.13 33.67 28.40 31.73 35.63 37.62 35.49 36.58 34.56 31.56 28.95 27.70 20.61 25.47 39.15 39.46 39.51 40.48 40.28 40.49 40.31 40.02 40.27 40.58 40.60 42.09 41.93 39.28 37.87 37.12 37.81 36.34 36.17 35.74 35.42 35.68 36.15 36.38 36.07 35.67 35.88 35.78 35.04 34.63
42.05 34.93 31.36 28.03 30.38 33.32 32.06 35.22 34.55 32.71 24.62 26.35 26.21 28.44 35.61 37.98 38.68 39.02 39.47 39.42 38.89 38.74 39.22 38.24 38.47 39.71 38.71 37.63 38.06 36.93 35.42 35.57 34.90 34.61 34.06 34.87 35.70 36.00 35.60 35.66 35.59 35.19 35.43 34.72
38.31 32.54 32.63 32.68 34.07 33.58 32.24 32.86 34.28 32.52 31.65 28.84 29.86 29.70 33.88 38.74 39.12 39.22 39.83 38.96 38.26 38.26 38.24 37.96 37.74 37.21 37.06 37.48 35.35 34.81 34.26 34.44 34.55 33.99 33.51 34.86 35.80 36.65 36.51 36.33 35.95 36.00 35.89 36.22
38.18 30.50 30.29 31.22 33.73 33.37 31.50 33.29 32.95 33.15 33.01 32.78 32.28 32.43 37.03 37.87 38.85 38.71 39.14 38.50 37.42 37.89 38.02 38.07 38.53 39.11 38.66 35.85 33.92 33.53 33.71 33.92 33.97 33.27 33.21 35.22 35.64 35.91 36.13 35.45 34.82 35.37 34.70 34.04
33.82 30.26 26.89 23.65 29.16 27.92 24.48 30.82 32.71 32.54 33.46 33.55 29.71 34.71 37.83 37.03 38.34 38.57 37.99 38.04 37.59 37.75 38.22 38.71 39.03 38.38 36.16 34.42 33.33 32.68 32.71 33.10 32.74 32.38 32.98 34.92 34.96 34.60 34.73 34.18 34.00 33.64 32.85 32.24
31.61 28.62 23.65 20.78 22.64 16.63 31.49 35.76 35.34 34.66 35.31 35.81 35.61 36.49 37.81 37.12 37.23 38.91 38.98 38.15 37.62 38.08 38.59 38.74 38.28 35.26 33.52 32.68 32.27 32.10 32.07 31.78 31.59 31.49 32.75 33.97 33.75 33.26 33.34 32.91 32.65 32.19 31.32 30.16
35.13 28.05 23.41 19.59 20.99 27.30 31.92 34.34 34.70 33.70 33.52 38.12 36.99 36.88 37.45 37.20 37.68 36.77 39.25 38.70 38.79 39.61 38.86 36.56 34.69 33.14 32.24 31.77 31.54 31.23 31.54 31.18 30.98 31.85 32.75 33.26 33.14 32.64 32.48 31.04 30.27 29.88 29.13 27.59
33.45 29.86 25.37 18.04 16.20 15.10 29.63 34.78 38.50 37.58 28.90 37.75 38.73 37.09 36.75 36.75 31.10 37.76 38.72 38.62 38.11 37.89 35.45 33.79 32.60 32.00 31.28 30.96 31.24 31.40 31.06 30.24 30.56 31.45 32.50 32.97 32.60 31.76 29.92 29.48 28.58 28.91 27.38 27.81
26.49 24.58 20.28 13.42 15.34 24.51 33.04 38.16 39.30 28.36 30.19 37.89 39.16 37.91 36.47 35.69 37.90 38.46 38.97 38.74 39.41 35.94 33.52 33.11 32.48 31.37 31.03 31.40 31.62 30.66 29.94 30.09 31.46 31.86 32.24 31.91 31.45 29.85 29.36 28.01 27.06 26.51 26.51 26.01
29.62 27.58 21.66 21.64 14.66 21.57 36.52 38.58 33.03 36.17 36.13 39.51 39.29 38.63 38.79 38.22 37.76 38.73 39.66 37.02 33.01 32.94 32.88 32.53 31.26 30.95 31.23 31.60 30.80 29.70 29.56 31.29 31.84 31.44 31.30 30.66 29.81 30.45 29.64 27.01 26.55 26.81 24.47 23.52
28.91 31.23 27.97 29.10 29.27 35.47 37.39 37.82 39.20 39.11 38.76 40.08 39.86 40.46 41.50 38.82 38.78 39.93 35.14 32.33 32.20 32.48 31.85 31.18 31.11 31.22 31.76 31.28 30.61 29.71 30.79 31.27 31.08 30.37 29.66 29.39 29.84 30.27 29.09 25.96 25.11 24.14 23.41 19.68
34.66 36.18 30.09 32.13 35.86 36.19 37.47 39.08 39.94 40.31 40.44 41.02 41.61 40.98 41.35 39.85 40.89 36.76 33.92 32.45 31.43 30.56 30.38 30.67 30.90 29.64 29.78 30.57 31.12 30.66 30.10 30.36 30.29 29.72 29.82 29.50 29.03 28.64 28.98 28.20 26.48 24.08 19.26 20.22
34.79 36.26 34.09 32.06 36.55 36.75 39.25 40.45 40.90 40.93 41.94 41.80 42.26 42.24 41.96 41.14 38.31 34.93 33.06 31.44 30.95 30.41 30.81 30.83 29.91 29.55 29.60 30.07 30.91 29.67 29.41 29.97 29.66 29.94 30.28 30.74 29.64 29.63 28.12 26.44 24.88 25.06 24.72 24.52
37.03 35.82 31.46 31.16 37.73 37.50 37.91 40.49 41.98 41.77 41.93 42.49 41.58 40.16 36.55 37.37 34.31 33.78 31.52 30.72 30.72 30.20 29.90 29.86 29.89 29.41 29.61 30.39 29.61 29.27 29.88 29.27 29.06 28.96 30.70 30.80 29.53 28.43 27.55 25.77 24.67 28.69 27.65 28.28

GFSCGP_sfc_wetblb_021.txt.gz
Wetbulb
46.67 44.20 41.74 43.72 43.04 42.01 41.43 40.70 40.21 41.14 43.32 44.50 42.59 43.83 45.31 47.71 49.44 49.83 50.86 51.99 52.95 53.49 55.49 57.19 58.82 60.43 60.78 60.91 60.90 60.82 59.81 58.98 56.62 54.23 53.86 54.97 54.93 54.61 51.74 51.81 51.86 51.87 51.41 51.27
45.50 42.50 44.78 46.18 44.90 43.49 42.32 40.95 39.93 42.10 44.23 44.90 43.66 43.24 46.20 47.30 46.75 48.70 50.19 51.40 52.52 53.03 54.08 55.67 57.88 59.26 60.17 60.59 60.69 60.23 60.04 59.74 56.12 56.17 56.78 57.90 56.71 54.75 51.57 50.84 50.54 50.63 50.63 50.58
42.94 44.17 46.22 44.86 43.68 43.25 41.91 41.53 40.70 41.15 43.44 44.46 43.74 41.85 44.04 46.97 48.42 49.20 50.05 51.90 53.16 53.43 54.12 55.19 55.73 57.16 57.32 57.71 59.01 58.73 56.47 56.10 56.12 56.92 55.76 54.79 54.74 53.48 52.16 49.96 49.37 49.44 49.84 49.84
44.59 46.13 44.02 43.71 42.87 43.36 40.82 43.95 42.45 41.83 41.45 38.81 41.61 37.55 41.41 44.95 46.33 48.29 49.90 52.10 52.92 54.24 55.21 53.90 52.00 52.27 53.09 52.68 54.24 54.77 54.23 53.87 53.05 53.52 54.16 53.31 52.69 51.80 49.63 49.51 49.95 50.11 49.56 49.26
43.03 44.15 43.13 42.99 43.11 44.85 42.43 44.25 43.22 41.35 40.12 39.85 39.45 39.94 39.60 44.78 44.37 47.40 48.72 49.95 51.17 52.65 52.72 50.67 50.32 50.49 50.12 51.30 52.36 52.52 51.87 51.86 52.02 52.19 52.26 51.41 49.91 49.39 49.50 49.57 48.43 49.20 49.34 49.16
43.73 46.53 45.49 44.77 44.77 44.76 45.43 44.13 43.02 41.56 40.30 35.29 38.12 38.08 38.15 42.10 45.46 47.05 48.11 48.92 49.67 50.25 49.99 49.50 49.66 49.70 49.90 51.58 51.42 51.20 50.42 49.83 50.87 51.18 50.99 50.60 49.60 48.87 49.15 48.79 48.74 49.33 49.59 49.22
42.47 42.85 44.83 45.98 44.33 44.92 44.63 42.03 35.89 34.83 34.94 33.37 37.90 36.65 40.45 43.63 46.22 48.83 47.88 48.82 49.64 50.22 49.40 49.14 49.59 50.36 50.09 50.29 49.67 50.06 50.16 49.03 50.24 50.29 49.94 49.68 49.33 48.76 48.51 48.55 48.35 48.05 48.19 48.48
37.19 36.12 42.06 44.93 43.87 42.08 41.04 41.90 36.91 29.47 30.95 34.11 37.62 35.49 40.91 44.23 46.85 50.34 50.26 49.95 49.38 49.12 49.22 49.55 50.05 49.79 49.34 48.66 49.41 49.69 49.79 49.02 49.19 49.11 48.68 48.73 48.54 48.73 48.77 48.46 47.95 47.26 46.70 46.27
37.98 37.11 43.98 44.02 45.23 45.15 40.62 38.17 41.17 34.45 31.25 32.42 35.97 38.96 43.09 43.57 44.43 47.12 47.40 48.11 48.37 48.76 49.00 49.02 48.70 48.64 48.33 48.65 48.82 49.48 49.16 48.67 48.06 48.10 48.75 48.38 48.44 47.73 46.86 45.94 46.09 45.75 45.55 44.66
41.74 37.11 41.72 43.74 45.38 44.69 43.42 42.76 36.90 35.95 28.77 27.36 32.44 34.19 37.90 40.42 42.44 45.57 45.62 46.96 48.00 48.46 47.89 48.07 47.97 48.02 48.17 48.69 48.99 49.64 49.46 47.39 46.92 47.53 46.72 46.40 45.56 45.45 45.27 45.35 44.18 44.16 44.55 44.59
42.01 41.06 39.55 42.16 40.80 40.50 40.90 38.59 36.96 37.11 33.71 29.53 27.46 33.83 41.78 43.51 44.74 44.96 46.59 47.39 47.57 47.27 47.45 47.30 47.37 47.04 47.40 48.18 48.41 47.79 45.12 45.89 45.23 44.44 44.04 44.15 44.34 44.36 44.74 43.88 43.60 43.53 43.90 43.48
42.37 39.46 36.18 38.10 42.63 44.10 42.51 39.60 38.80 34.10 31.03 30.79 30.97 34.17 41.14 43.55 45.74 46.53 46.47 45.96 47.14 47.45 47.21 47.17 46.75 46.37 45.72 45.76 44.69 42.28 43.31 42.63 42.57 43.10 43.24 42.91 43.44 43.65 43.45 43.01 42.81 43.04 42.13 42.33
42.72 38.29 34.07 36.40 39.90 41.94 40.51 39.89 36.97 35.54 34.68 31.72 33.07 34.81 41.45 43.04 43.05 45.18 46.14 45.47 44.86 45.17 45.87 45.89 45.58 45.35 44.49 42.70 41.25 42.65 41.71 41.25 41.91 42.14 41.87 42.07 42.41 42.56 42.41 42.17 42.56 42.60 42.07 42.04
44.07 37.86 36.87 33.65 35.67 38.09 36.90 38.17 37.32 37.60 33.16 32.17 33.93 36.17 38.81 42.38 42.37 43.14 43.95 44.72 44.63 44.45 44.23 45.17 44.92 44.77 43.14 42.76 42.34 40.81 40.85 41.31 41.20 41.15 41.05 41.00 41.48 41.88 42.23 42.53 42.56 42.28 41.59 41.44
42.45 37.26 37.00 36.10 36.66 37.00 36.65 37.03 36.93 36.05 36.31 35.19 35.74 34.66 39.01 42.32 44.20 44.30 44.10 43.26 42.79 42.55 42.76 43.10 42.88 42.79 43.17 42.81 40.39 40.15 40.48 40.66 40.98 40.31 39.98 40.02 40.62 41.70 41.97 42.00 41.87 41.11 41.01 41.04
40.40 35.91 35.74 34.29 35.92 35.48 35.30 36.50 36.76 37.16 36.68 36.45 36.17 36.64 42.05 42.77 43.81 42.65 42.55 42.32 42.09 42.07 42.40 42.74 42.28 42.38 42.26 41.53 40.53 39.58 39.56 39.86 39.55 39.17 38.78 39.00 39.79 40.70 40.72 40.98 40.38 40.01 40.07 39.62
37.69 35.07 32.68 29.97 31.69 32.08 29.86 34.82 36.73 36.60 37.85 39.27 35.28 41.00 41.76 41.30 41.40 43.14 43.14 42.97 42.31 42.20 42.69 42.28 42.05 42.63 42.82 42.07 40.07 39.04 39.10 38.82 38.11 37.67 38.00 37.93 39.19 39.16 39.64 39.46 39.05 38.84 38.09 38.53
34.90 32.20 29.10 30.08 27.81 26.50 36.60 39.48 38.78 37.45 38.41 39.04 38.65 40.01 41.55 42.12 42.49 43.08 44.10 43.26 42.22 42.36 42.53 41.97 42.61 42.54 40.71 39.75 38.90 38.39 38.11 37.32 36.89 37.06 37.21 38.16 38.40 38.21 38.56 38.28 38.00 37.38 37.06 37.33
37.25 32.81 27.60 30.09 28.11 31.54 36.02 35.68 36.95 36.69 38.19 40.83 39.86 40.59 40.58 41.00 42.32 42.98 43.39 44.24 44.39 44.22 43.85 42.56 42.26 39.81 38.38 38.02 37.65 37.26 37.15 36.84 36.37 36.31 36.67 37.47 37.77 37.16 37.21 36.58 36.29 36.15 35.91 35.26
35.19 34.01 33.85 26.79 27.58 25.57 34.85 37.50 41.76 41.53 34.68 41.55 41.63 40.44 39.99 41.68 39.63 43.17 43.49 43.43 43.38 44.11 42.13 39.01 37.37 36.20 37.18 36.65 37.03 36.49 36.12 35.43 35.73 36.32 36.29 36.96 37.32 36.30 36.21 35.45 35.26 34.92 34.40 33.70
32.41 30.77 30.51 23.31 29.50 31.08 36.58 39.89 42.19 33.62 36.26 40.11 42.04 41.77 40.51 41.21 44.76 44.25 44.39 42.97 43.36 41.19 38.30 37.07 36.22 36.30 36.59 36.58 36.40 35.48 34.82 35.01 35.82 36.29 36.40 36.62 36.02 35.94 35.50 35.02 34.67 33.87 33.53 32.55
32.92 31.20 29.84 25.36 26.43 28.04 38.78 41.07 37.88 41.97 41.72 41.96 42.76 42.76 42.35 44.41 41.78 41.87 41.47 39.81 37.45 34.40 34.06 34.88 35.22 35.45 35.69 36.27 35.72 34.73 34.13 35.66 35.56 35.35 35.52 34.76 34.90 34.68 34.22 34.39 34.07 32.89 32.35 30.58
32.68 35.92 34.76 33.59 35.07 40.03 40.47 42.78 43.92 42.54 42.23 43.55 43.50 44.26 44.09 42.34 41.77 42.06 39.53 35.48 34.81 35.16 35.50 35.64 35.58 34.93 35.41 35.21 35.13 33.99 35.09 34.19 34.17 34.58 34.50 34.20 34.52 34.45 34.11 33.56 33.14 31.55 30.95 29.74
36.96 37.75 36.10 35.51 39.26 37.98 40.15 42.50 42.58 43.77 43.87 44.41 45.12 45.53 43.96 43.13 42.53 40.21 35.48 34.40 34.61 34.64 32.91 34.57 34.54 33.58 33.66 34.31 33.89 34.79 33.95 33.87 33.75 33.46 34.01 34.65 33.85 33.28 34.14 33.85 32.59 31.11 30.19 29.35
37.83 37.67 36.18 35.47 38.81 40.14 41.49 42.37 44.66 44.83 43.87 43.66 44.80 45.23 44.57 44.03 42.35 35.61 33.81 32.77 32.35 32.25 33.94 33.66 33.19 33.19 32.90 33.24 33.79 34.38 33.54 33.69 32.74 32.92 33.43 33.86 33.63 32.74 32.94 32.77 31.62 30.52 31.03 30.64
38.73 38.65 36.84 37.08 42.10 41.95 42.28 43.42 44.34 44.16 44.51 44.96 44.28 42.19 42.31 41.74 36.84 35.60 33.89 33.72 32.67 33.54 33.10 33.02 32.93 32.65 32.42 32.86 32.71 32.84 33.11 32.56 32.27 31.75 32.48 33.63 33.27 33.39 32.57 31.82 31.00 29.67 29.17 28.74

GFSCGP_sfc_wetblb_024.txt.gz
Wetbulb
50.62 47.61 45.02 46.17 47.19 46.50 45.64 44.76 43.36 45.65 48.58 49.10 48.20 48.66 49.34 53.33 55.51 55.57 56.65 57.60 58.41 58.95 59.90 60.74 62.27 63.67 64.42 64.49 63.27 63.41 62.23 63.79 63.04 61.56 59.68 58.13 57.83 57.59 56.66 57.05 56.40 56.17 55.76 55.40
47.97 44.67 47.80 48.93 47.18 46.81 46.17 44.58 44.72 45.81 47.94 49.21 49.06 48.25 50.15 51.44 53.51 55.59 56.56 57.28 58.04 58.07 58.91 59.56 61.96 62.60 61.85 61.74 62.57 63.18 63.65 64.29 63.73 62.11 60.67 60.34 59.80 59.34 57.43 56.61 55.73 55.47 55.06 54.65
46.37 47.77 48.65 47.93 47.53 46.49 46.41 45.47 45.06 44.94 47.43 49.48 49.17 47.27 48.91 50.54 52.25 53.39 55.19 57.33 57.80 57.73 58.11 59.75 60.95 61.90 61.97 61.85 63.51 63.85 63.86 63.46 60.81 60.78 60.65 60.09 59.24 56.94 56.36 56.42 56.48 54.72 54.74 54.20
47.80 48.68 48.48 48.18 46.38 47.68 44.39 47.00 47.18 46.35 45.99 42.51 47.80 41.18 47.88 49.67 50.31 52.46 54.15 56.22 56.11 57.97 59.67 60.27 60.93 61.53 62.58 62.50 63.41 61.73 60.49 59.79 59.58 59.03 58.21 57.42 57.68 56.30 55.38 55.77 55.16 55.42 54.14 52.81
46.15 46.82 47.06 46.62 46.04 47.59 45.73 48.31 48.18 46.75 46.68 45.05 44.91 42.93 46.82 49.91 48.99 51.42 54.81 56.55 57.93 58.49 58.42 57.96 58.57 59.34 60.49 61.09 59.95 59.16 58.48 57.62 57.88 58.17 58.02 56.53 54.90 54.27 54.12 54.52 52.46 53.32 53.07 52.70
48.03 50.11 49.49 48.49 48.58 48.67 49.43 47.92 47.28 47.20 46.19 39.77 43.69 43.03 43.75 47.66 50.03 52.12 54.45 55.10 56.69 56.60 55.84 55.37 55.90 56.09 56.63 57.87 57.60 57.36 56.63 55.99 56.36 55.97 55.26 54.10 52.48 50.75 51.14 51.01 50.56 50.45 50.93 51.42
46.97 46.73 48.93 50.12 47.60 49.48 48.86 46.77 40.42 38.32 38.56 37.18 43.33 41.87 43.99 48.46 51.36 53.85 53.32 54.25 55.33 55.39 54.57 53.85 53.62 54.24 55.16 55.58 55.98 56.02 55.43 54.42 54.66 53.65 52.42 51.88 51.22 50.79 49.05 49.32 49.48 49.23 48.21 48.12
42.65 40.19 45.86 48.27 48.05 46.00 46.87 46.16 40.21 31.53 34.47 38.64 42.57 39.38 45.64 49.22 51.84 55.15 55.28 54.82 54.82 54.19 54.11 53.94 54.32 54.85 55.07 54.96 55.20 55.22 54.75 52.82 52.17 51.31 51.20 51.02 50.02 51.22 50.43 49.31 47.81 47.03 46.70 46.31
42.53 41.14 47.47 47.56 48.99 48.38 45.02 43.07 46.59 40.47 37.08 38.04 41.84 44.37 47.95 48.56 49.37 53.13 53.78 53.55 53.42 54.00 54.09 54.20 54.76 55.11 54.68 54.78 54.70 54.85 52.67 51.27 50.02 49.54 49.69 49.83 49.22 48.17 47.33 46.94 47.48 46.43 46.13 45.30
46.27 40.88 45.70 46.91 48.88 48.66 47.20 48.06 41.31 42.80 33.01 31.57 38.96 39.97 42.51 45.62 47.22 50.72 52.35 52.31 53.08 54.15 54.21 54.37 54.30 54.31 54.62 54.62 53.96 53.46 52.72 50.06 48.85 48.98 49.03 47.06 47.57 47.76 47.69 47.07 45.37 45.21 45.66 45.67
48.10 45.53 43.41 46.07 45.35 44.86 44.53 43.94 42.87 43.58 40.83 34.77 33.33 39.53 47.25 47.07 49.48 50.02 52.34 52.99 53.56 53.96 54.02 54.02 54.10 54.09 53.96 53.54 52.69 52.00 49.58 47.82 47.36 46.02 46.78 46.79 47.15 47.11 46.68 45.66 45.21 45.29 45.39 44.96
47.66 46.78 42.01 43.48 46.64 47.86 47.02 45.01 44.28 38.90 36.30 39.02 38.09 39.22 46.73 49.17 50.40 51.70 52.47 53.31 54.43 54.77 54.42 54.20 53.69 52.73 51.96 51.56 51.53 48.09 48.86 45.20 44.21 47.04 46.53 45.78 46.67 45.93 45.53 45.12 45.18 45.35 44.59 44.81
48.01 45.02 39.63 40.27 43.90 46.15 44.64 45.43 44.27 42.93 42.33 37.85 36.92 39.57 46.62 48.88 49.35 51.41 51.94 53.49 53.47 53.82 53.75 53.47 52.51 51.29 50.65 50.20 48.94 47.08 44.07 43.26 46.09 46.00 45.77 45.33 45.36 45.41 45.14 45.07 45.35 45.24 44.64 43.78
47.38 45.49 43.33 39.65 41.02 44.62 41.83 43.35 43.94 43.27 38.39 38.67 39.60 41.04 44.18 46.33 47.70 49.69 51.23 52.94 52.81 52.31 52.36 52.51 51.43 50.90 50.17 48.98 47.20 43.55 44.22 45.91 45.87 45.35 44.75 44.72 45.28 44.98 44.75 45.20 45.03 44.64 44.10 42.86
48.21 43.03 43.00 42.08 41.96 42.04 42.29 42.74 43.07 41.62 42.69 38.84 41.21 41.04 43.86 46.00 47.38 49.36 51.30 51.89 51.44 50.49 50.85 51.08 50.62 50.61 49.51 48.00 45.55 45.16 45.67 45.94 45.58 44.48 44.07 44.60 44.77 44.67 44.59 44.59 44.42 43.99 43.04 42.64
46.15 42.69 41.70 39.49 40.87 40.72 39.79 42.60 43.21 43.70 43.68 42.85 43.18 42.50 48.18 48.92 48.88 49.09 49.81 49.92 49.55 49.69 49.93 50.45 50.34 49.77 47.95 46.73 45.41 44.71 46.06 44.89 44.74 43.50 43.54 43.58 43.15 43.15 43.08 43.41 42.87 42.15 42.01 42.09
44.71 42.79 39.72 36.37 37.61 38.11 35.65 40.90 42.82 43.12 44.78 44.08 40.79 45.31 48.11 46.20 46.94 48.22 49.23 49.65 49.21 49.64 49.82 49.67 49.28 48.80 47.43 47.36 44.14 45.89 44.96 44.36 43.05 42.96 42.54 41.92 41.93 41.53 41.83 41.89 41.40 41.06 41.14 41.37
42.60 41.60 38.76 37.31 33.82 31.90 41.06 43.66 43.40 43.45 44.66 45.89 45.25 46.29 46.62 47.09 48.59 49.30 50.59 50.73 50.13 50.23 49.80 49.71 49.73 48.18 47.10 47.27 46.41 45.41 43.82 42.70 42.51 41.83 41.03 40.88 40.83 40.40 40.81 40.76 40.49 41.04 40.99 40.09
44.44 41.75 35.36 36.73 34.93 38.48 40.40 40.76 40.41 40.32 41.40 46.25 45.60 46.52 46.90 46.95 47.63 49.40 50.47 51.04 51.38 51.31 50.68 50.98 50.51 47.55 46.52 44.44 44.36 43.16 42.20 42.29 40.97 40.12 39.60 39.99 40.48 39.66 39.52 39.33 39.81 40.44 39.82 39.34
41.35 42.12 41.50 35.03 35.37 33.54 40.62 42.20 45.52 45.43 38.55 45.10 46.24 46.45 45.99 46.55 43.70 45.91 50.81 50.46 50.32 50.89 51.15 49.87 47.80 44.82 42.51 43.23 42.89 41.90 41.16 40.51 39.15 38.98 39.38 39.96 39.92 39.06 38.41 39.22 39.54 39.66 39.57 37.94
38.62 38.18 37.37 36.12 36.62 38.73 43.05 43.11 46.09 36.55 39.26 47.00 46.96 47.73 47.42 46.30 48.50 49.51 50.61 50.19 50.82 50.73 49.09 46.00 43.56 42.85 41.90 40.97 41.27 40.45 39.68 38.03 39.31 39.51 39.45 39.05 39.23 38.78 38.83 39.22 39.27 38.67 38.33 37.65
39.05 38.24 37.25 34.96 34.92 33.25 43.90 44.67 41.09 46.09 48.58 47.77 48.39 49.22 49.03 50.26 49.61 48.30 48.93 49.56 49.09 47.73 44.89 43.45 40.99 40.80 40.05 41.25 40.68 38.77 37.51 39.08 38.99 38.43 38.19 38.28 38.56 38.07 37.77 38.18 38.34 37.56 37.31 36.05
38.40 42.82 42.32 41.04 42.16 44.69 46.43 47.74 49.38 48.63 47.86 48.80 48.75 49.61 49.71 49.24 48.95 48.24 47.22 47.12 44.89 43.22 39.41 39.93 39.49 37.49 38.68 39.43 39.32 37.03 37.21 37.43 37.39 37.41 37.62 38.02 38.05 37.89 37.71 36.96 36.10 35.25 36.15 34.96
42.94 43.67 42.08 40.42 44.50 45.19 46.36 47.69 48.43 49.04 48.66 49.44 50.09 49.62 49.62 48.73 49.56 48.20 46.07 43.71 41.70 41.48 39.36 37.77 36.21 36.83 36.39 37.60 36.65 37.28 37.86 37.30 37.02 36.59 37.15 37.65 37.38 36.63 36.69 36.09 34.49 34.59 34.36 33.83
44.74 43.52 42.16 41.60 44.81 46.13 47.30 48.01 48.32 48.86 49.99 49.88 50.54 50.03 49.40 49.33 49.05 48.52 44.09 41.30 39.14 36.50 36.26 35.87 35.98 37.34 36.31 36.62 36.59 37.77 37.29 37.05 36.12 36.26 36.36 36.22 36.49 36.34 36.34 36.11 34.54 34.45 35.69 34.68
44.26 43.38 41.96 41.89 45.58 45.50 46.56 48.63 49.57 48.30 48.82 49.52 48.83 49.02 47.97 48.32 47.56 44.34 40.94 38.47 36.48 33.53 34.49 35.94 36.20 36.06 35.87 35.53 36.00 36.33 36.53 35.44 34.71 34.35 35.22 35.94 35.36 36.07 34.77 34.48 33.71 31.70 30.34 30.54

GFSCGP_sfc_wetblb_027.txt.gz
Wetbulb
52.47 47.76 45.36 47.65 48.72 47.90 46.88 45.38 43.99 47.14 50.07 47.84 46.62 48.71 50.73 54.76 55.22 55.83 56.94 58.42 59.48 60.39 62.57 63.02 63.99 64.86 65.63 65.35 64.35 64.49 63.33 63.39 63.94 62.84 61.67 60.90 59.58 59.61 59.44 59.76 58.76 58.46 58.13 57.16
49.04 45.03 49.94 50.14 48.59 47.84 46.53 44.65 45.31 47.27 48.98 49.08 47.66 47.41 51.42 54.11 54.96 56.04 56.41 57.63 58.91 60.48 61.33 62.01 63.26 64.31 65.06 63.86 63.85 64.37 63.48 63.79 64.35 63.12 63.00 62.30 61.04 60.18 59.39 58.59 58.18 57.76 57.08 56.63
45.17 48.55 50.23 48.80 47.01 46.11 46.51 45.24 45.56 45.37 48.52 49.38 48.89 47.75 50.21 53.00 55.88 56.99 57.98 58.72 59.33 60.03 60.47 61.27 62.64 61.90 62.43 61.77 62.58 63.49 63.54 63.92 63.86 62.68 61.90 61.53 61.11 58.88 57.56 57.41 57.30 56.50 56.22 55.29
47.91 51.27 48.89 48.05 46.99 47.97 44.30 49.04 48.25 46.88 46.23 42.20 49.43 39.97 47.43 51.56 52.09 54.22 56.29 58.12 59.35 60.23 61.15 62.10 62.60 60.65 61.03 62.08 63.20 63.32 62.78 62.99 61.79 61.74 60.52 59.38 57.89 56.10 57.73 57.44 56.64 56.64 55.35 53.96
46.60 48.59 48.85 47.47 47.78 49.76 46.84 49.72 48.94 48.55 47.05 46.17 46.42 43.15 42.44 51.69 50.31 52.06 54.89 56.72 58.54 59.78 60.93 61.44 62.28 63.03 63.05 62.42 62.59 63.31 61.98 60.90 60.61 59.93 59.90 59.07 57.47 56.88 56.26 55.54 53.26 53.37 53.63 52.96
49.10 51.87 51.49 50.63 50.56 50.59 50.91 49.28 48.58 48.77 46.68 40.62 44.17 43.64 44.20 48.93 50.89 53.07 55.51 57.38 58.86 59.93 59.80 60.09 61.10 61.70 62.01 63.02 61.19 60.55 59.52 58.69 59.09 58.92 58.25 56.94 54.99 52.70 51.88 51.26 50.72 51.17 51.27 51.18
48.08 48.34 50.83 51.63 48.53 50.57 49.64 46.95 40.68 38.76 39.24 38.30 45.65 43.55 44.99 48.53 52.31 54.62 55.75 57.16 58.69 58.58 57.38 57.47 57.55 58.26 59.23 59.00 58.75 58.57 57.88 56.90 57.24 56.37 54.56 53.35 51.95 51.46 50.16 50.46 50.42 48.65 47.91 47.78
43.30 41.42 48.55 51.15 49.46 47.27 47.74 46.96 41.12 33.47 35.31 39.00 45.57 40.02 45.15 51.96 53.12 55.50 57.54 57.82 58.44 57.12 56.60 56.25 56.42 56.98 57.46 57.54 57.75 57.32 56.92 56.09 55.27 53.59 52.47 52.31 50.96 50.58 50.66 49.94 48.85 48.11 47.09 46.65
43.67 42.68 49.51 49.75 50.91 49.72 47.08 43.88 48.77 43.11 42.25 38.82 41.23 44.39 50.19 51.10 51.20 54.24 56.04 56.53 56.58 56.26 56.00 55.80 56.45 56.83 56.94 57.15 57.09 57.14 56.64 55.18 53.04 52.95 52.48 50.97 49.51 48.88 47.95 48.25 48.73 47.61 47.00 46.36
47.67 42.37 47.44 48.68 50.47 50.51 48.68 49.92 42.25 43.12 34.11 33.36 40.06 41.11 44.03 47.71 48.81 52.15 54.58 55.12 55.99 56.21 55.92 55.85 56.26 56.79 57.29 57.16 57.24 57.58 56.15 53.33 52.57 51.02 50.77 48.98 48.29 48.11 48.59 48.42 47.31 46.35 46.67 46.52
49.45 46.71 45.63 47.75 46.41 45.62 46.81 45.09 45.31 45.41 43.94 36.76 34.84 41.23 47.86 47.20 49.98 51.08 54.06 55.62 55.96 56.00 56.15 56.01 56.55 57.14 56.97 57.18 56.73 55.37 54.44 52.65 50.76 49.80 48.13 47.14 47.40 48.28 48.14 47.85 47.10 46.56 46.59 46.05
50.16 47.40 43.23 45.22 49.47 50.32 49.44 47.24 47.08 40.70 38.92 41.42 40.59 40.44 49.01 49.49 50.61 52.44 53.22 55.39 56.42 56.82 56.71 56.80 56.83 56.56 56.09 56.00 55.26 54.33 52.80 51.19 49.39 48.07 46.67 47.26 48.38 47.66 47.45 46.96 46.41 46.60 45.95 46.14
50.65 45.50 40.74 42.35 46.42 48.62 45.67 46.99 47.10 45.82 44.57 40.02 38.13 40.55 49.40 49.56 49.49 51.08 52.39 54.50 55.85 56.31 56.59 56.86 56.58 55.80 55.37 55.02 54.33 53.22 51.70 49.38 48.27 45.97 46.85 47.99 47.33 47.08 46.83 46.55 46.30 46.33 46.00 45.43
48.86 47.11 44.16 40.31 43.21 46.68 44.25 45.50 46.54 45.12 39.89 40.38 41.15 42.85 45.93 47.85 48.35 49.69 51.23 53.03 55.07 55.77 56.05 56.43 56.16 55.78 55.09 54.53 53.73 51.76 49.71 49.64 47.47 46.08 46.34 47.01 46.78 46.81 46.64 46.08 45.73 45.70 45.65 44.45
50.29 44.45 46.26 46.31 45.84 45.32 44.92 44.42 45.33 43.84 44.13 41.38 43.14 42.89 44.95 47.03 47.94 49.52 51.00 52.02 52.51 54.22 54.98 55.49 55.34 55.44 54.67 53.71 52.77 50.62 49.34 47.95 46.58 46.24 46.18 46.36 46.79 46.47 45.69 44.96 45.16 45.32 44.60 43.59
50.30 44.11 45.29 42.89 45.80 44.67 42.98 44.89 44.81 44.97 44.77 44.26 44.66 44.14 49.04 49.96 50.21 49.58 49.99 50.99 51.14 52.43 54.09 54.54 55.28 55.17 54.11 53.01 51.48 48.91 48.07 47.21 46.54 46.03 45.80 45.82 45.51 44.82 44.07 43.75 44.05 44.01 43.04 42.77
48.13 45.52 42.20 37.72 41.59 41.71 37.06 42.88 44.65 45.29 46.34 45.84 42.51 46.54 49.02 48.14 48.50 49.20 49.76 50.63 50.84 51.91 53.20 53.76 54.36 54.56 54.30 53.26 51.09 47.89 47.73 47.55 46.24 45.71 45.09 44.66 44.21 43.02 42.52 42.63 42.41 41.92 42.01 42.66
46.83 45.64 43.25 38.97 36.08 30.82 42.55 46.37 45.40 44.51 46.02 47.19 46.71 47.31 48.23 48.24 49.83 51.10 51.71 51.36 51.17 52.18 52.80 53.71 54.26 54.21 54.40 53.22 50.41 48.79 48.02 46.24 45.13 44.36 44.00 43.69 42.60 41.58 41.84 41.55 41.22 41.42 41.98 41.68
48.49 45.30 39.12 37.96 36.63 40.59 42.37 43.74 42.94 42.13 42.46 47.08 45.91 46.74 47.82 49.50 49.86 50.24 52.15 51.87 51.74 52.46 53.60 54.39 54.63 54.19 53.50 51.51 49.23 47.05 45.14 43.76 43.65 42.78 42.73 41.92 41.39 40.59 40.29 40.01 40.22 40.90 41.07 40.59
44.74 46.45 42.52 37.72 34.92 31.89 42.71 44.83 47.26 46.94 39.51 46.77 47.18 46.96 47.37 48.15 44.06 47.09 51.55 51.62 51.70 53.06 53.99 53.76 54.11 53.74 51.62 49.51 48.03 45.19 43.11 43.49 41.65 41.85 40.98 40.96 40.54 39.97 39.59 39.90 39.78 40.64 40.68 39.75
40.69 41.17 38.83 38.41 37.53 41.19 46.00 46.00 47.76 38.10 41.39 48.54 48.57 48.29 48.57 46.96 48.55 52.18 52.74 52.02 53.00 53.17 53.29 53.99 53.42 51.15 49.27 47.18 44.75 42.50 42.33 41.59 42.03 41.01 40.34 39.71 39.95 39.84 40.15 39.72 39.58 39.85 39.27 38.93
40.91 40.31 37.96 40.73 35.09 33.23 46.93 46.65 41.71 47.61 49.40 49.23 49.62 49.86 49.37 50.98 51.57 51.81 51.98 51.48 52.07 51.95 51.93 50.12 47.94 46.79 44.42 42.68 42.54 40.81 39.32 40.68 40.52 39.62 38.38 38.89 39.83 39.80 39.21 38.82 38.99 38.60 38.70 37.50
41.19 45.56 44.41 43.48 43.62 47.98 48.74 47.73 49.73 50.30 49.13 49.45 49.59 50.54 50.90 50.26 50.36 51.24 50.99 51.07 51.13 50.25 48.50 46.70 44.54 41.09 40.20 40.39 40.26 38.42 38.62 39.00 37.99 37.88 37.89 38.51 39.06 39.29 39.50 37.92 36.53 36.67 36.93 35.85
46.70 47.63 44.42 43.30 45.91 46.80 47.87 49.44 49.95 50.46 50.22 51.01 51.54 51.43 51.51 50.37 51.06 51.02 51.43 49.86 48.46 47.18 44.11 42.97 40.77 38.40 36.63 37.84 37.28 38.21 38.51 37.99 37.57 36.87 37.24 37.86 37.92 37.75 37.39 37.49 37.76 35.57 34.19 34.90
47.54 47.03 44.94 44.73 46.98 47.85 48.67 50.01 50.33 50.75 51.58 51.60 52.31 52.13 51.63 50.93 50.79 51.29 50.32 46.42 44.38 41.12 40.50 39.11 36.98 36.54 36.73 38.95 38.21 38.13 37.71 37.64 36.41 36.47 36.76 37.20 36.86 36.62 36.82 37.11 37.12 36.28 36.07 35.59
48.22 46.00 44.15 43.03 47.53 47.24 48.37 50.87 50.81 50.29 49.13 48.88 48.99 49.08 48.40 48.44 48.73 48.03 44.05 41.61 39.78 37.40 36.28 35.64 35.97 36.59 36.68 36.69 37.02 37.36 37.77 37.10 35.59 35.03 35.26 36.10 36.15 35.87 36.08 35.20 34.33 34.47 32.39 32.15

GFSCGP_sfc_wetblb_033.txt.gz
Wetbulb
49.79 42.25 39.07 43.16 45.33 47.02 45.31 41.98 40.92 43.05 45.30 46.75 46.02 43.10 44.77 47.30 51.14 50.83 50.92 53.03 52.90 52.99 54.62 56.03 56.34 60.31 60.43 60.85 61.58 61.53 60.31 59.78 59.35 58.42 57.28 56.61 55.22 54.28 54.20 54.11 54.72 54.35 53.26 52.72
45.38 40.59 46.28 48.56 48.78 46.73 45.91 42.43 40.94 44.35 46.22 44.41 44.31 43.08 44.67 46.58 48.29 52.07 52.23 52.96 53.69 53.93 55.49 57.11 58.16 60.41 60.30 60.19 60.95 61.09 60.33 59.61 59.83 59.20 59.23 58.06 55.08 54.45 53.68 53.03 52.71 52.71 51.86 51.67
43.27 45.30 49.89 48.13 45.84 44.57 44.20 43.03 42.03 42.05 42.49 41.77 41.22 39.19 42.39 46.81 49.10 52.34 54.20 54.87 55.42 54.67 55.72 57.17 59.11 59.98 60.22 59.59 60.27 60.51 60.21 60.03 60.36 60.44 59.53 57.53 54.39 52.31 51.17 50.66 50.32 50.86 51.29 50.61
44.48 48.69 47.82 46.24 45.27 45.89 41.79 46.93 46.25 45.41 40.26 34.70 42.52 33.43 42.30 45.92 47.19 49.26 51.06 52.16 54.69 56.08 57.61 57.94 58.63 59.62 59.81 59.39 59.88 60.34 60.43 60.28 60.47 60.64 57.56 54.45 51.42 50.24 50.34 50.59 50.00 49.68 50.56 49.48
43.23 45.48 45.27 44.37 45.84 48.04 43.65 47.42 45.69 45.24 42.80 40.37 39.53 35.16 38.76 46.03 44.97 47.84 48.96 50.45 51.53 56.94 57.17 57.04 58.02 59.23 59.58 60.11 59.82 60.57 60.52 60.46 60.95 61.08 57.13 55.38 51.17 49.98 50.17 50.20 49.34 49.08 48.65 49.25
45.90 49.27 48.29 47.22 48.89 48.45 48.98 45.99 45.85 44.15 40.77 33.52 39.89 38.12 38.38 41.26 45.16 48.95 51.25 52.24 53.52 56.08 55.84 57.61 58.93 58.98 58.97 59.00 59.12 59.65 60.18 60.04 59.38 56.12 55.24 52.43 50.72 47.80 46.35 45.38 45.58 46.75 44.95 43.89
44.97 45.41 49.28 50.01 45.67 47.65 46.17 40.88 32.46 29.96 30.66 30.59 42.99 39.44 39.64 46.25 47.68 49.87 51.33 51.68 51.22 54.33 54.88 57.39 57.26 57.07 57.92 58.13 58.36 58.88 58.00 54.54 53.59 50.95 48.95 47.59 46.44 46.12 45.17 45.11 43.92 43.47 42.92 41.83
38.40 36.78 45.38 49.13 46.24 44.93 43.82 41.69 33.85 27.86 28.45 31.77 42.50 36.39 41.56 47.63 50.17 51.89 52.50 51.16 52.90 53.40 55.28 57.18 57.20 57.18 57.72 57.75 57.40 57.16 53.28 52.33 51.18 48.75 47.14 46.47 46.02 45.47 45.47 43.98 42.95 44.16 43.27 43.30
38.50 39.60 47.93 49.21 48.99 46.87 44.50 40.86 44.45 37.26 35.55 30.60 35.40 39.37 45.27 47.33 48.41 49.07 48.48 51.69 52.25 52.67 52.97 54.81 57.38 57.14 56.40 54.14 53.28 52.23 51.73 51.39 49.98 47.77 46.26 45.81 45.54 44.53 43.06 42.97 43.62 44.65 42.23 43.90
43.41 37.52 45.53 47.61 49.15 47.33 44.63 45.73 36.61 36.25 28.08 26.88 33.95 35.33 37.60 43.16 47.23 47.98 49.97 51.13 51.57 51.62 51.90 52.47 53.19 54.38 54.37 53.14 53.22 52.35 51.22 50.78 48.46 46.69 45.93 44.65 43.28 43.08 43.13 43.60 44.83 43.90 42.44 42.61
45.14 42.61 42.13 45.62 43.50 41.06 42.52 40.30 41.18 40.01 36.25 28.95 26.37 32.10 41.92 43.66 45.66 47.59 49.99 52.05 52.39 51.47 51.20 51.43 51.14 53.12 53.73 52.97 52.58 51.90 50.57 48.39 46.53 46.04 44.75 43.83 43.14 42.97 44.04 44.82 45.02 43.74 43.60 42.46
45.93 42.49 36.77 41.97 47.14 47.37 44.90 42.68 42.26 30.83 32.58 34.03 29.49 32.17 43.51 43.72 46.18 47.22 48.28 52.66 52.90 52.85 51.83 51.44 51.32 52.40 52.65 52.63 52.42 51.39 50.32 46.70 45.70 45.29 44.01 43.21 43.49 44.08 44.49 44.68 44.98 44.58 42.58 41.48
46.30 39.79 31.84 35.79 41.74 45.04 42.12 43.44 43.15 42.75 37.70 33.60 26.06 31.45 44.19 44.71 43.24 46.25 46.37 48.19 52.30 52.59 51.79 51.66 51.48 51.95 52.36 52.38 52.21 51.79 49.29 47.08 46.69 44.55 42.54 43.02 44.78 44.55 44.36 44.31 44.87 43.18 40.98 41.97
47.69 42.64 37.15 30.98 36.91 42.50 39.67 42.26 42.88 40.08 30.18 32.11 33.04 37.20 41.76 42.62 43.59 44.15 45.48 45.94 48.31 51.99 52.86 51.89 51.81 51.95 52.63 52.72 52.39 52.12 49.45 47.35 45.14 43.86 42.37 44.19 44.44 44.81 44.10 44.33 41.67 41.76 42.32 40.40
45.10 38.06 39.70 41.02 43.32 44.41 43.88 42.46 41.90 39.36 39.48 33.79 37.09 39.13 42.23 41.91 42.87 43.42 45.44 46.29 46.62 47.36 49.81 50.72 51.26 51.32 52.11 52.34 51.87 51.79 50.14 47.35 46.16 44.57 44.70 44.49 45.29 45.00 44.09 42.49 42.11 42.02 40.93 39.99
45.73 38.24 39.07 37.42 43.52 41.96 39.29 41.60 41.52 41.35 41.41 39.50 40.13 39.38 43.53 43.94 44.38 44.27 45.05 45.63 45.86 46.71 47.36 47.98 50.79 51.80 51.79 51.49 50.90 50.31 47.31 46.51 46.30 44.92 44.86 45.03 44.37 43.81 42.05 41.11 40.65 40.24 39.57 39.48
42.81 39.85 34.34 31.25 37.06 36.64 29.23 37.35 39.73 41.20 42.00 40.44 35.54 39.56 42.98 42.56 44.03 43.73 44.30 45.69 45.78 46.42 47.16 47.80 47.99 50.47 51.38 51.07 50.60 47.95 46.45 46.17 45.16 45.82 45.04 44.81 44.87 42.63 40.35 40.60 39.86 38.67 37.71 38.19
42.33 40.26 33.79 29.08 29.43 21.31 37.37 43.25 42.50 40.34 41.07 41.04 40.91 40.93 42.49 42.55 43.57 44.81 44.93 44.64 45.15 46.03 46.46 46.53 47.27 48.12 49.33 49.50 48.54 46.90 46.62 44.83 44.98 44.17 43.25 42.34 41.27 39.48 39.23 39.04 37.69 37.50 37.95 37.01
46.48 38.15 32.08 27.42 27.33 34.30 38.93 41.30 40.71 38.63 37.40 42.18 41.01 42.04 42.56 43.81 42.72 44.20 47.55 47.21 46.25 46.38 46.73 46.94 47.44 48.41 46.60 46.03 45.51 44.59 44.16 44.86 42.15 40.43 39.51 39.43 39.60 38.68 38.25 37.35 37.22 37.76 37.08 36.12
43.83 41.86 31.54 29.38 24.94 20.50 36.21 41.82 44.86 42.99 31.56 43.27 43.47 42.55 42.63 42.66 34.13 40.11 46.84 48.08 47.61 47.55 44.50 41.47 43.22 44.42 43.69 42.63 41.83 39.88 39.03 38.34 37.86 38.03 37.96 38.24 38.22 37.89 37.08 37.21 37.10 36.56 36.04 36.43
31.24 31.74 27.94 25.19 24.28 31.61 43.79 44.29 45.13 30.46 32.66 43.58 44.03 43.43 42.99 40.22 41.83 45.45 47.59 47.35 47.12 42.95 40.58 39.87 38.98 38.61 38.83 39.54 39.18 37.47 37.55 36.34 37.27 38.44 38.85 38.78 38.81 38.02 37.87 37.24 36.25 35.63 35.01 33.84
33.25 31.42 27.07 30.91 29.10 27.35 44.89 43.07 36.01 41.28 43.23 44.22 43.86 43.99 44.02 44.65 46.32 47.17 47.75 46.80 43.56 38.55 38.35 38.28 37.08 36.72 37.68 37.89 37.40 36.05 35.26 36.86 37.33 38.09 38.18 38.01 37.52 37.41 37.36 35.84 35.83 34.96 32.94 31.16
33.84 39.14 34.53 35.88 34.15 43.16 43.63 43.10 45.02 44.93 43.98 44.33 44.88 46.28 46.71 46.17 46.29 46.62 42.01 39.89 38.20 36.94 36.22 37.17 35.92 35.97 36.82 37.45 37.61 35.69 36.33 37.31 37.57 37.42 36.79 36.07 36.66 36.64 36.59 33.70 32.19 31.62 31.16 29.23
41.93 45.56 38.73 38.65 42.37 42.81 44.17 47.10 47.63 47.42 45.84 46.33 44.10 43.76 44.80 43.64 40.07 38.50 38.20 37.39 36.49 36.26 36.42 37.97 36.80 35.57 34.96 36.69 37.12 37.07 36.84 36.66 35.71 34.15 34.46 34.76 34.29 33.96 33.54 33.44 32.56 31.24 28.27 26.66
41.61 42.68 41.06 39.40 42.73 44.82 44.92 45.82 45.13 44.72 44.95 42.32 41.93 41.01 40.58 39.09 38.22 37.07 36.03 35.82 36.88 37.07 37.15 36.96 36.11 35.45 34.92 35.48 34.89 35.60 35.69 35.39 34.07 33.95 34.02 32.47 32.48 31.90 32.12 32.81 31.89 29.96 29.07 28.80
42.99 41.52 35.01 33.92 44.16 42.37 41.72 43.27 43.66 41.61 40.86 41.62 39.85 37.81 38.52 38.16 36.50 36.10 34.98 35.30 35.61 34.81 35.29 34.69 33.85 34.37 35.59 36.05 34.78 35.11 35.48 34.43 32.88 31.77 30.88 28.18 27.71 28.56 30.55 30.18 29.91 32.35 31.91 32.89

GFSCGP_sfc_wetblb_036.txt.gz
Wetbulb
47.76 41.70 37.92 40.82 43.09 43.39 43.11 41.71 39.92 40.77 44.63 46.10 44.96 42.96 43.64 49.84 51.73 50.82 48.76 49.32 52.80 56.45 58.39 59.34 59.35 59.96 59.54 58.24 59.03 60.11 58.34 58.21 57.74 57.71 56.31 53.97 53.12 53.58 53.79 52.99 53.89 53.58 52.62 52.48
42.97 39.63 44.93 46.38 47.17 45.42 43.90 40.93 39.78 42.32 44.68 45.51 43.27 42.03 42.40 47.62 50.46 51.96 49.82 50.12 51.11 51.77 53.98 56.60 57.63 57.97 57.68 57.49 59.60 59.51 58.82 58.23 57.74 58.14 56.79 55.49 53.96 53.58 53.08 52.74 52.87 51.58 51.03 50.16
40.67 43.59 48.54 46.89 45.67 43.65 41.85 40.90 39.80 41.11 42.67 40.16 40.70 38.29 40.72 44.36 49.06 51.84 52.20 53.20 53.02 52.59 53.17 53.75 56.67 56.97 57.12 58.75 59.58 59.52 59.13 58.41 58.50 58.52 57.74 55.27 53.81 51.49 50.09 49.60 49.11 49.60 50.42 50.10
42.62 46.79 46.47 44.54 44.00 44.22 39.30 45.40 43.92 43.17 38.17 33.30 39.10 31.62 39.35 43.90 45.53 49.69 51.54 52.55 52.67 53.00 54.30 55.95 56.92 56.84 57.42 58.63 60.26 60.09 59.45 58.87 59.11 59.02 57.26 54.70 53.66 50.58 49.46 49.19 48.53 48.41 49.12 48.29
41.47 44.04 43.77 43.17 44.16 46.66 42.79 46.13 44.08 44.35 38.93 37.12 37.92 33.63 37.56 42.71 42.67 45.60 47.99 50.59 52.58 53.96 54.86 56.88 57.40 58.17 58.45 58.60 58.71 59.34 59.59 58.72 59.16 59.18 57.36 54.21 50.65 50.16 49.53 48.92 48.02 47.66 46.58 45.67
42.71 46.96 46.62 46.38 47.78 47.11 47.51 44.36 43.39 42.10 39.47 32.18 37.77 34.87 34.94 39.94 43.96 44.98 48.53 49.18 51.65 53.42 54.38 56.91 58.96 58.78 58.53 59.01 59.06 59.10 58.76 58.99 59.00 59.03 56.44 53.46 50.77 48.75 49.55 47.40 46.72 45.86 43.02 42.94
42.55 44.59 46.77 48.67 44.62 47.15 45.55 39.26 30.52 29.31 28.76 28.87 41.09 36.50 37.98 43.44 46.71 46.98 47.86 48.24 50.02 55.01 54.27 56.83 57.76 58.38 58.48 58.23 58.35 58.63 58.98 58.77 58.59 56.10 54.35 51.58 49.45 48.61 49.15 46.88 44.03 42.47 42.23 42.44
36.33 35.23 44.27 47.67 45.31 42.40 41.81 39.40 31.21 26.91 26.48 29.93 40.41 34.85 39.55 46.16 48.04 49.29 48.92 48.44 52.01 53.19 55.71 56.28 57.42 57.80 58.36 58.24 57.97 58.58 58.50 54.80 51.46 49.30 48.79 46.90 47.79 47.59 45.43 45.71 44.84 44.38 42.92 42.30
36.76 39.24 46.41 47.37 47.68 45.87 42.37 38.11 42.31 35.13 32.59 28.63 34.59 38.35 43.18 46.15 45.78 47.31 47.53 48.79 50.13 51.51 54.71 55.83 56.58 56.77 57.52 57.17 57.44 56.51 53.08 50.47 47.72 45.78 45.52 46.78 45.98 45.98 45.53 46.29 46.53 44.63 42.76 43.26
42.12 35.85 44.09 46.95 47.92 46.58 43.31 44.58 36.68 34.92 27.82 26.91 31.86 33.27 35.23 42.77 45.55 46.27 45.76 47.21 49.79 51.34 54.53 55.30 55.90 55.71 55.85 55.95 54.41 51.99 51.40 49.68 46.94 45.53 45.22 44.51 45.32 46.14 45.62 44.89 44.53 43.12 43.12 43.04
43.80 39.74 39.49 44.38 42.34 41.67 40.37 38.45 39.04 37.88 33.18 27.71 25.72 31.53 39.51 43.43 46.76 46.11 46.77 48.61 50.36 51.19 53.36 55.15 55.94 55.99 55.31 54.04 52.12 50.40 50.52 48.59 45.82 45.35 43.82 43.37 43.40 44.13 44.29 44.27 44.15 43.35 43.24 42.82
44.64 40.71 34.99 40.67 45.66 46.15 42.63 41.06 40.17 29.75 31.22 31.91 27.92 31.32 42.71 43.18 45.39 48.17 49.03 50.92 51.17 52.21 52.69 54.17 54.85 55.37 54.06 53.33 52.51 50.54 50.46 48.80 46.72 45.51 43.96 42.59 43.03 45.26 44.96 44.11 44.01 43.77 43.66 43.81
44.00 38.50 31.41 35.30 39.57 43.28 40.65 41.62 41.55 39.60 34.71 31.31 25.54 30.87 42.92 42.25 42.47 45.58 48.38 49.55 51.43 51.34 50.24 51.33 51.64 53.67 53.87 53.71 53.10 52.02 49.99 48.84 46.05 45.46 43.68 42.04 43.14 43.97 43.59 43.78 44.12 44.75 42.64 41.07
45.81 39.71 35.62 30.78 35.34 39.63 37.88 40.50 40.64 38.00 29.26 31.40 31.71 35.69 40.99 41.34 41.50 42.28 43.72 45.08 49.22 51.19 50.56 50.20 49.96 51.81 53.26 53.57 53.22 52.21 48.74 46.88 45.60 44.27 43.26 43.84 43.83 44.12 43.68 42.78 43.90 42.04 41.17 39.51
43.34 37.19 38.30 39.08 40.76 41.67 40.43 40.54 40.57 37.78 37.13 32.55 35.97 36.61 40.64 40.70 40.09 41.19 42.91 43.96 45.81 48.63 48.95 49.26 48.73 48.50 49.93 50.31 51.79 51.58 47.63 47.07 46.59 45.14 44.13 44.53 44.16 44.32 44.33 42.14 41.52 40.75 40.37 39.88
43.51 36.32 36.39 34.69 39.51 38.89 36.90 39.05 38.43 39.41 39.19 38.62 38.33 37.02 40.56 41.32 42.03 42.61 43.21 43.93 43.80 44.22 45.25 46.16 48.83 49.21 49.51 49.85 49.60 49.19 47.13 46.08 44.87 44.39 44.78 45.52 44.12 41.42 41.57 40.69 39.79 38.09 39.67 39.30
40.77 37.98 32.25 30.73 34.63 34.31 28.51 35.67 38.65 39.37 40.19 39.92 33.96 38.22 40.13 40.05 41.19 40.96 41.78 42.88 42.91 43.35 44.05 45.18 45.70 49.19 49.46 49.52 49.63 47.31 45.35 45.20 44.68 45.12 45.01 44.51 43.44 41.85 40.33 39.77 39.34 38.30 37.58 37.51
39.13 37.14 31.06 27.75 27.83 21.03 36.63 41.56 41.06 38.20 38.35 38.89 39.34 39.27 40.60 41.64 41.47 42.71 42.53 42.57 43.12 44.04 44.38 44.61 45.42 46.34 47.57 47.63 45.23 45.09 46.01 45.08 45.12 43.86 43.08 42.40 40.30 39.21 38.84 37.59 37.64 37.89 37.59 37.06
44.25 36.05 31.03 26.43 26.36 32.70 37.26 39.53 38.15 36.49 35.43 39.93 39.01 40.08 40.68 42.49 42.73 42.61 45.18 45.03 43.97 43.08 42.18 42.11 42.28 42.06 42.13 43.15 44.33 44.17 41.71 39.37 38.92 38.23 38.31 38.68 38.33 37.76 37.93 37.49 37.36 37.66 36.09 35.74
41.05 38.32 32.64 28.18 23.88 20.72 34.07 39.99 42.82 41.44 30.43 41.52 41.49 40.56 40.85 40.25 34.10 38.90 44.68 43.07 39.44 38.99 38.90 38.93 39.03 39.09 38.56 38.66 39.17 37.70 36.57 36.05 35.46 36.40 36.99 37.78 38.45 38.33 37.75 37.50 36.28 35.35 35.16 34.41
30.22 30.55 27.16 22.86 22.69 28.68 38.92 42.34 42.74 29.74 31.04 41.94 42.26 41.67 41.05 38.87 39.93 43.01 40.93 38.80 38.67 38.09 37.93 38.05 37.22 36.31 36.98 37.67 36.98 34.97 35.52 35.75 37.83 38.78 39.18 39.54 39.59 38.92 37.61 35.66 34.92 33.37 32.87 32.45
32.48 29.30 25.08 29.79 24.46 25.83 43.22 41.06 35.99 38.00 41.25 42.24 42.70 42.45 42.51 43.34 43.62 41.90 38.86 37.45 36.95 36.29 36.40 36.81 35.90 35.72 37.00 38.07 37.26 35.78 35.75 37.74 38.81 39.18 38.78 37.99 36.39 36.23 35.76 33.51 33.08 32.70 30.93 29.17
32.73 35.25 31.92 33.73 32.68 40.87 41.54 41.28 43.24 43.46 42.93 42.88 43.44 44.51 44.96 42.51 37.66 37.26 35.91 35.78 35.92 35.49 34.66 36.32 36.48 36.32 37.20 37.74 37.52 35.38 35.04 37.14 37.82 37.10 35.50 34.59 34.80 34.73 34.26 31.97 30.20 28.99 28.63 26.11
39.32 43.55 37.63 37.52 40.70 42.11 43.31 44.07 44.51 44.60 41.40 40.96 41.68 41.61 40.25 37.15 37.21 36.08 35.90 35.70 35.78 36.04 36.75 37.13 36.09 34.84 34.61 35.77 35.93 35.40 35.64 35.35 34.39 33.64 33.18 33.13 32.77 32.39 31.37 31.21 30.41 29.23 25.85 25.00
39.73 41.36 38.99 37.71 40.86 42.34 42.19 42.03 41.79 40.52 40.22 39.19 39.29 38.87 37.97 36.97 36.02 35.94 35.42 35.59 35.61 35.46 36.00 36.14 34.80 34.10 33.72 34.12 33.90 34.55 34.72 34.53 33.11 32.83 32.69 31.40 30.31 30.18 30.14 30.53 30.46 29.78 29.23 28.41
40.84 39.49 34.82 33.20 42.36 40.26 39.83 40.82 41.50 39.84 38.54 38.25 36.95 35.89 36.58 36.24 34.54 34.15 33.14 33.69 33.69 34.29 34.80 34.65 34.37 33.60 33.32 33.55 33.21 33.79 33.97 33.14 31.96 30.77 30.02 28.01 27.22 27.55 28.71 28.84 29.70 32.01 31.49 31.58

GFSCGP_sfc_wetblb_039.txt.gz
Wetbulb
46.46 40.81 37.41 40.02 41.40 42.11 40.83 39.27 37.28 39.06 43.62 44.86 43.35 41.46 46.85 49.39 51.29 52.10 51.60 50.70 54.42 56.83 59.04 60.01 59.92 60.59 60.66 57.87 57.87 58.67 57.70 57.20 57.51 56.97 55.28 53.40 52.99 52.88 52.36 52.07 53.01 53.21 52.69 51.25
41.72 38.07 43.67 45.18 44.19 43.69 41.79 40.22 39.33 42.68 44.63 43.95 41.21 41.23 41.91 48.14 51.77 52.85 51.64 48.85 52.61 56.43 57.56 59.01 59.46 60.06 59.33 57.07 58.19 58.11 57.99 56.99 57.29 57.44 54.86 54.32 53.21 53.03 52.50 52.05 52.31 51.42 51.44 49.25
38.96 41.73 46.70 45.20 42.69 41.79 40.22 38.99 38.89 40.19 42.43 38.71 39.75 38.39 39.88 44.08 49.41 51.95 51.86 50.71 52.56 55.60 55.87 57.36 58.45 57.75 58.26 56.39 57.37 58.39 58.05 57.28 57.36 57.09 55.86 53.49 52.04 50.76 50.01 49.99 49.17 49.35 49.87 48.88
41.23 44.87 44.46 43.29 41.69 42.07 37.77 43.21 42.02 40.50 38.19 32.31 37.93 30.44 38.21 41.25 45.76 48.65 50.79 49.47 50.67 54.03 55.73 56.42 56.90 56.70 57.08 56.84 58.02 58.73 58.28 57.36 57.53 57.83 55.91 52.86 51.31 50.63 49.41 49.26 48.33 48.40 49.28 48.01
39.72 42.75 42.45 41.42 42.48 44.41 40.68 44.44 42.57 41.84 38.37 35.60 35.54 32.29 35.13 40.36 40.68 46.06 48.84 49.67 50.62 52.16 54.06 54.37 56.17 56.58 57.02 57.00 57.94 58.41 58.36 58.08 58.13 57.97 57.01 53.64 51.12 49.76 49.04 48.17 47.64 46.35 45.48 45.44
41.67 45.03 43.83 43.47 46.35 45.58 45.96 42.52 41.04 39.83 37.83 30.46 36.18 33.89 33.85 38.25 42.68 43.39 48.86 50.69 51.51 51.43 51.77 53.99 56.08 56.48 56.01 57.29 57.94 58.14 58.21 58.09 57.98 57.85 56.90 53.79 51.49 49.35 48.83 46.88 45.67 44.60 42.46 41.94
40.69 42.35 44.70 46.65 41.92 44.63 42.51 37.86 30.05 28.82 28.10 28.32 38.17 34.69 37.07 42.30 43.60 44.93 45.47 47.65 50.97 51.59 51.76 54.83 55.45 56.07 56.75 56.82 57.64 58.46 58.35 57.89 57.87 57.47 56.42 53.16 51.91 49.96 50.29 47.97 46.47 42.11 40.60 40.60
35.11 33.13 42.22 45.99 43.09 40.60 39.65 38.05 29.85 25.92 25.47 28.76 38.06 32.98 38.32 44.14 45.98 46.24 46.11 47.47 47.57 51.14 53.32 55.86 56.41 56.65 56.95 57.17 57.97 58.12 58.23 58.06 57.08 56.32 55.10 52.15 50.65 49.86 49.82 47.72 45.23 44.26 43.07 42.42
35.25 36.54 43.92 45.34 45.82 45.19 40.86 37.06 40.53 33.36 31.26 27.68 32.26 36.92 41.38 44.43 45.08 45.56 45.11 48.90 48.90 50.85 53.32 55.58 57.14 57.33 57.09 57.51 58.30 57.75 57.80 57.28 54.09 52.34 49.26 47.47 46.67 45.92 48.24 47.29 46.20 44.19 43.42 42.89
40.61 34.12 41.99 44.71 45.76 45.28 42.42 43.49 34.33 33.50 27.33 26.13 29.95 31.27 33.69 40.97 43.32 45.06 44.99 46.58 48.90 50.89 52.91 54.34 56.00 56.50 57.60 57.30 57.47 57.24 56.66 54.46 49.55 46.95 47.38 46.67 47.76 47.52 48.00 46.75 44.76 43.66 43.08 43.17
41.91 38.09 37.22 42.62 40.81 39.44 39.08 37.02 36.94 36.40 31.46 26.63 24.66 30.49 37.63 41.35 43.38 45.24 44.00 45.81 48.43 50.56 53.07 54.65 55.54 56.18 56.82 57.00 56.58 56.28 53.04 49.93 46.46 45.52 45.77 45.32 46.30 45.75 45.75 45.25 44.12 43.25 43.63 42.70
42.66 37.79 32.86 38.01 43.27 44.40 41.17 39.08 37.93 29.51 30.23 30.23 27.51 30.23 40.61 41.12 43.12 45.39 46.63 47.25 48.64 50.47 53.67 54.81 55.52 55.60 55.76 55.56 55.25 55.05 52.98 50.04 48.02 46.01 44.57 44.28 44.90 45.04 44.17 44.33 43.56 43.00 41.55 40.85
43.13 36.41 30.21 34.20 38.37 40.68 39.63 39.93 40.15 37.45 32.80 30.22 25.23 30.24 41.27 40.50 40.79 43.53 46.59 47.67 49.31 50.17 50.48 52.60 53.71 54.61 54.91 54.44 54.05 53.25 52.45 49.79 46.56 45.07 45.25 44.61 44.02 44.28 43.99 43.35 43.58 41.88 41.86 42.40
44.27 38.14 35.21 31.25 35.10 38.95 35.71 38.97 38.89 37.25 28.92 30.50 30.35 33.91 39.49 41.24 40.82 41.52 42.23 44.53 47.31 49.23 49.36 49.14 50.34 52.97 54.38 54.01 52.99 52.07 48.89 47.38 46.53 45.41 44.20 43.07 43.97 43.82 43.85 43.79 43.34 42.34 40.70 41.12
42.57 36.23 36.57 37.33 38.18 39.54 38.72 38.89 38.21 36.12 35.84 31.82 35.06 34.80 39.19 39.54 39.24 39.91 41.28 42.28 45.64 47.89 48.06 48.17 47.82 48.23 49.72 51.00 51.44 50.72 48.54 47.27 45.86 45.39 44.57 43.46 43.89 44.24 44.45 42.36 40.21 41.57 40.96 40.20
41.78 34.82 35.70 33.24 37.61 37.56 36.30 38.89 37.97 37.93 37.25 36.75 36.14 35.80 39.48 39.26 39.24 40.46 41.10 41.97 41.87 42.58 43.56 44.84 47.63 48.12 48.31 49.40 49.40 49.26 47.10 46.49 45.63 44.04 43.89 44.41 45.15 43.20 41.54 40.46 39.65 38.66 38.63 38.83
38.82 36.17 31.55 29.60 33.06 33.07 28.71 34.34 37.35 37.83 38.90 38.68 33.36 37.60 38.47 37.87 39.31 39.31 39.98 41.29 41.38 41.87 42.98 44.20 44.49 47.15 47.30 47.41 48.14 46.15 44.17 43.66 43.10 44.23 44.91 44.58 42.88 41.54 39.93 39.38 38.76 38.16 37.98 38.67
37.50 34.61 30.29 27.13 27.94 21.23 35.88 39.42 39.58 37.41 36.47 37.52 37.61 38.07 39.40 39.36 39.29 40.58 40.90 41.16 41.54 42.18 42.77 43.05 43.05 44.20 44.49 43.98 42.99 42.89 43.38 43.21 43.42 43.60 43.79 42.68 40.09 38.48 38.40 38.33 38.17 38.28 39.14 38.01
41.91 34.31 29.21 26.82 26.54 31.58 36.09 36.85 37.02 35.37 33.42 38.11 37.30 38.69 39.99 41.34 41.10 41.23 43.74 42.31 40.61 39.56 38.81 37.87 38.01 39.54 41.23 41.90 42.62 40.53 38.27 37.65 37.31 37.11 38.05 38.48 39.03 38.82 38.93 38.44 39.15 38.88 37.00 34.38
38.25 36.76 32.62 26.12 24.08 22.15 34.30 38.48 40.65 39.73 29.52 39.50 39.34 38.96 39.78 38.55 32.53 37.67 41.35 38.98 37.24 37.00 36.91 36.52 36.96 36.66 36.53 36.73 37.11 35.79 34.97 35.30 35.12 37.09 38.00 38.86 39.13 39.15 39.05 38.64 37.05 34.79 34.51 34.02
30.78 30.00 28.38 22.57 22.74 29.15 37.05 40.77 40.82 30.28 31.57 40.32 40.71 40.07 39.26 37.19 37.82 38.39 37.37 36.41 36.52 36.42 35.97 36.39 35.78 34.46 34.67 36.17 36.57 35.13 35.65 35.68 38.57 40.41 41.03 40.96 40.52 39.44 39.01 36.04 33.92 32.86 31.74 30.89
33.10 29.37 24.80 25.43 21.59 25.74 40.56 39.58 34.47 36.63 39.10 40.88 40.36 40.95 40.73 40.17 37.26 36.49 36.22 35.59 35.19 34.48 35.03 35.78 35.39 35.26 35.84 35.90 36.95 36.16 36.56 38.83 39.45 39.52 39.24 38.74 37.38 36.16 35.64 32.87 32.38 31.65 29.84 28.48
32.41 35.20 32.27 33.43 32.22 39.15 40.06 39.53 40.75 41.41 41.31 41.39 42.22 42.73 41.21 37.08 35.53 35.50 34.98 34.80 34.49 33.86 33.77 35.33 34.96 34.89 36.60 37.26 37.05 35.31 36.19 37.47 37.37 36.59 34.62 33.97 33.71 33.40 33.24 31.66 30.56 29.02 28.32 26.38
37.95 40.57 35.23 36.03 39.03 39.96 40.69 41.12 41.60 42.33 41.56 41.49 42.77 41.31 38.21 35.28 35.21 34.73 34.82 34.76 34.75 34.13 33.52 34.15 33.98 34.07 33.89 35.51 35.91 35.78 35.72 35.22 33.42 32.30 31.80 31.97 31.29 31.09 30.46 30.24 30.06 28.51 26.63 25.62
38.21 40.23 37.14 36.16 38.80 40.10 40.12 39.15 38.76 38.32 38.63 37.77 38.05 37.84 36.70 36.04 35.15 34.98 34.28 33.84 33.76 33.81 34.35 34.68 33.76 33.49 33.59 35.03 34.41 33.47 33.31 33.35 31.91 31.58 31.27 30.82 30.10 29.66 29.66 29.56 29.66 29.56 29.52 29.41
39.96 38.51 35.29 33.76 40.95 39.49 39.29 39.27 39.44 37.68 36.78 37.03 36.12 35.14 36.03 35.84 34.25 33.86 32.73 32.97 32.86 32.69 34.38 34.20 33.91 33.46 31.97 31.04 30.72 31.27 31.85 30.99 30.06 29.66 29.40 27.89 27.43 27.68 28.31 28.03 28.71 31.76 31.31 31.74

GFSCGP_sfc_wetblb_042.txt.gz
Wetbulb
44.66 39.77 36.22 38.48 39.50 39.99 39.94 38.39 36.69 38.14 41.45 43.88 42.53 40.87 45.43 48.91 50.62 50.98 51.76 52.75 53.91 54.79 56.27 57.63 58.17 58.17 58.02 58.12 57.37 58.44 57.41 56.37 56.75 55.59 54.75 53.76 53.43 54.86 54.06 53.67 53.14 52.85 51.56 50.64
40.99 37.37 41.74 43.31 43.31 41.63 40.86 38.19 36.92 40.09 41.98 41.73 37.78 38.79 43.25 47.86 49.85 52.25 52.16 52.79 53.22 54.86 56.26 57.41 57.69 58.27 58.64 58.31 57.77 57.89 57.92 56.81 57.13 57.60 54.72 54.32 52.98 53.06 53.91 53.22 52.31 52.23 50.75 49.72
38.06 40.51 45.19 43.48 40.73 40.13 38.48 37.08 37.02 39.20 40.85 38.49 37.92 35.83 37.41 44.58 49.52 52.21 53.25 54.11 53.74 54.12 55.42 57.03 57.83 57.99 58.98 57.36 57.18 57.76 57.84 57.09 57.50 56.90 54.67 52.48 51.89 51.31 51.13 49.97 49.93 50.15 50.10 48.16
39.97 43.49 42.85 41.04 40.39 40.67 36.05 41.73 40.67 39.51 36.98 32.29 36.28 29.39 35.45 38.75 46.61 48.44 51.72 51.16 51.55 51.89 55.76 57.29 57.76 57.65 58.23 57.81 56.51 57.90 57.64 57.11 57.26 56.59 55.57 52.69 52.17 50.00 49.90 50.51 50.25 48.45 48.85 47.25
39.30 40.84 40.97 39.99 41.19 42.75 39.56 43.03 40.99 39.69 36.28 34.81 34.63 32.16 35.10 38.01 38.53 46.02 49.65 51.08 51.92 51.93 55.17 56.04 57.24 58.27 57.92 56.53 55.58 56.57 57.01 56.99 57.35 57.13 56.04 53.42 51.04 50.50 49.13 48.51 48.16 46.90 46.56 45.63
40.37 43.44 42.89 42.83 44.00 43.54 44.04 41.13 39.47 38.00 35.70 29.77 34.36 32.11 33.42 36.48 40.68 42.08 48.37 51.20 52.31 51.10 53.52 55.68 56.53 56.51 55.61 54.98 55.97 56.69 56.89 56.79 57.53 57.17 55.88 53.61 51.83 49.95 49.86 47.99 47.21 45.08 43.48 42.57
38.84 40.67 42.94 45.21 40.54 42.86 40.57 36.83 29.25 28.39 28.01 28.46 36.46 33.28 35.88 40.90 41.65 43.84 44.30 47.87 50.46 51.83 49.97 51.75 52.73 53.98 54.29 55.14 56.63 56.83 57.25 57.01 57.60 57.01 56.55 54.20 52.59 52.72 51.35 49.74 47.79 45.05 40.64 40.04
33.73 31.71 40.83 44.22 42.06 39.28 38.48 37.42 29.61 25.58 25.07 28.43 36.01 31.71 37.09 42.10 44.48 45.79 44.33 44.67 47.55 48.81 49.52 51.71 52.95 54.37 54.59 55.69 56.67 57.31 57.70 57.24 57.21 56.43 56.43 55.18 54.53 53.65 52.55 51.28 48.74 45.89 42.49 40.80
33.22 34.60 42.14 43.69 44.08 42.50 38.83 35.12 38.51 31.98 31.01 27.01 31.08 35.44 39.53 41.21 43.81 45.10 43.80 45.40 44.73 47.30 48.96 51.96 53.32 54.63 54.96 55.88 56.61 57.49 57.65 57.78 57.19 56.79 56.81 56.45 54.51 52.85 52.30 50.59 48.14 44.26 42.72 42.83
39.42 32.67 40.30 43.08 43.86 43.28 40.24 42.11 33.48 32.30 26.81 25.62 28.74 29.48 32.20 38.49 40.32 43.09 44.41 44.84 45.97 47.33 50.00 52.89 54.23 54.84 55.72 56.25 56.70 57.17 57.49 57.64 57.24 55.59 54.90 53.70 51.25 51.62 50.65 49.04 46.07 43.81 44.37 43.27
39.76 36.53 35.26 40.84 39.20 38.25 37.75 35.66 35.16 34.82 30.52 26.34 23.63 29.25 37.14 38.62 40.79 40.80 43.27 44.96 46.41 48.79 50.71 52.86 54.72 55.92 56.35 56.45 56.59 56.51 56.55 56.57 53.71 52.89 50.32 49.55 48.32 48.44 49.18 47.77 47.54 45.82 43.84 41.98
41.14 36.12 30.64 36.41 41.18 41.97 39.11 38.27 36.37 29.06 29.09 29.20 26.70 29.38 39.36 39.23 40.27 41.23 43.87 45.58 45.65 49.53 51.16 52.16 53.53 54.63 56.07 56.41 56.27 56.19 56.29 55.52 53.44 49.37 46.89 48.32 48.91 48.56 47.31 46.25 44.41 42.20 40.90 41.62
41.60 34.44 28.75 32.35 36.11 38.91 37.64 38.93 37.97 35.33 31.65 29.59 24.98 29.89 40.17 39.86 40.23 40.87 42.99 45.12 46.70 48.50 49.79 51.92 52.82 53.69 54.90 55.49 56.51 56.21 55.24 53.12 49.05 47.55 45.90 46.57 46.03 46.23 44.69 43.30 43.16 42.87 42.47 41.77
43.58 36.56 33.26 30.07 32.94 36.93 34.66 37.36 37.70 36.04 28.45 30.00 29.66 33.02 37.97 39.89 39.68 41.06 41.67 39.49 45.75 47.84 49.12 49.64 50.98 52.29 53.01 53.27 52.90 52.86 51.42 49.45 47.80 45.99 46.61 45.37 44.05 43.43 43.90 44.01 42.84 43.10 42.50 41.01
41.34 34.64 35.43 35.47 36.94 37.73 36.76 37.14 36.41 34.98 34.76 32.09 34.60 33.46 37.92 38.75 39.14 39.28 39.43 41.69 43.06 46.10 47.01 47.44 48.51 49.45 50.47 51.10 51.61 51.31 48.39 46.88 46.72 45.94 45.27 42.68 43.03 42.64 43.23 42.53 40.80 40.88 39.72 39.60
39.99 34.39 33.88 32.98 35.96 35.91 34.64 37.16 36.32 35.63 35.12 35.03 34.71 34.62 39.13 37.89 37.59 39.07 39.70 40.81 40.87 41.41 42.43 44.14 45.95 46.85 47.11 48.58 49.63 49.41 47.36 45.68 45.38 43.60 41.87 42.59 43.17 42.40 41.23 39.46 38.50 38.91 40.07 40.77
37.39 34.97 30.93 30.00 32.26 33.24 28.66 33.83 36.77 36.28 36.84 37.61 32.67 37.50 37.88 36.26 38.35 37.63 38.87 39.96 39.94 40.72 41.91 42.52 43.08 44.41 45.45 45.31 46.48 45.72 44.05 43.41 42.57 42.82 43.12 43.37 42.03 40.13 39.94 39.51 39.05 38.83 39.41 40.42
35.74 33.53 29.95 26.29 27.37 21.64 35.11 37.74 37.85 36.96 37.04 37.58 36.45 36.57 37.41 37.80 38.33 39.39 39.63 39.16 39.95 40.47 39.53 38.31 38.90 40.95 41.38 41.31 41.08 41.61 41.83 42.16 42.27 41.65 41.13 41.35 39.79 38.64 38.82 39.42 39.25 39.47 39.84 39.46
38.93 33.11 29.04 26.79 26.26 30.77 34.27 35.97 35.91 34.90 34.38 37.22 35.67 36.87 37.76 39.12 39.84 39.40 38.82 38.07 37.18 36.62 36.11 35.83 35.96 36.31 36.16 36.28 37.18 36.84 36.51 37.17 37.17 36.78 37.39 38.59 39.11 39.10 39.14 39.15 39.86 40.22 38.95 36.89
37.16 35.12 31.88 25.36 23.71 21.92 33.38 37.90 39.31 38.21 29.81 38.09 38.25 37.96 38.82 38.23 32.72 36.32 36.87 36.88 35.33 34.94 35.08 34.72 34.68 35.11 34.81 34.82 35.84 35.32 34.92 35.78 35.68 36.97 38.55 39.69 40.33 40.50 40.07 39.37 38.43 36.59 35.51 33.89
30.13 29.22 26.90 21.21 22.70 29.46 37.17 38.67 39.22 29.84 31.52 38.43 39.80 38.96 38.20 36.42 35.79 36.08 35.77 34.65 35.11 35.01 34.56 34.99 34.25 33.63 33.81 35.02 35.85 35.13 36.08 36.42 38.45 40.38 41.03 40.97 40.74 40.24 39.68 37.83 34.62 33.31 31.96 30.60
34.03 30.00 25.09 24.81 22.32 27.11 39.07 37.98 34.19 36.81 37.47 38.94 39.18 39.40 38.76 36.22 35.42 35.29 34.89 34.04 34.08 33.40 34.05 34.52 34.27 33.95 34.81 35.91 36.57 35.28 35.21 37.37 39.12 39.25 38.76 37.78 36.56 35.46 34.68 32.49 31.77 31.30 29.58 28.40
33.24 36.17 32.90 34.03 33.70 39.24 39.26 38.33 39.27 39.78 39.16 39.51 40.13 40.86 39.58 35.58 34.66 34.98 33.48 33.10 32.94 32.92 32.79 33.77 34.16 34.14 34.75 35.34 35.49 34.61 35.34 35.94 35.49 34.04 33.77 32.53 32.17 32.02 31.51 30.10 29.50 28.72 27.75 25.16
36.07 38.29 34.78 35.40 38.17 38.90 40.28 40.28 40.59 41.20 40.57 41.51 41.77 40.48 38.17 34.59 34.71 33.36 33.45 33.08 32.62 32.02 31.36 32.48 32.95 32.48 32.51 34.04 34.65 34.85 35.08 34.75 32.92 30.71 30.52 30.59 30.14 29.85 29.32 29.18 29.23 27.80 26.03 26.09
37.52 38.34 36.33 34.91 38.51 38.64 39.89 39.13 38.58 37.91 38.51 38.02 37.44 36.66 35.66 35.10 33.95 33.99 33.04 32.65 32.23 31.73 32.18 32.84 32.78 32.99 32.06 32.60 32.25 32.35 30.92 30.58 29.67 29.79 29.64 29.20 28.61 28.22 28.46 28.41 28.02 28.27 28.37 28.32
39.22 37.58 35.22 35.03 39.99 39.52 39.11 38.21 38.41 37.52 36.30 36.72 35.83 34.69 35.23 35.20 34.09 33.20 32.05 31.81 31.25 31.29 32.33 32.37 31.86 31.13 30.57 29.99 29.48 29.97 30.44 30.07 29.56 29.33 28.96 27.16 27.02 26.30 27.97 27.95 27.59 30.71 30.57 31.86

GFSCGP_sfc_wetblb_045.txt.gz
Wetbulb
48.37 45.51 42.65 43.77 43.83 43.85 43.50 42.37 41.56 43.65 45.09 47.32 46.95 47.26 48.67 52.41 53.28 53.29 54.25 55.14 55.75 56.41 58.47 59.28 59.46 60.96 59.95 60.48 60.80 61.28 61.67 62.26 61.43 59.99 59.61 59.73 59.86 60.09 59.53 59.71 59.25 59.04 58.15 56.96
45.24 42.61 45.51 45.32 44.48 44.18 43.20 41.59 41.46 43.54 45.16 44.80 43.61 43.87 46.25 50.71 52.92 54.27 54.43 55.14 55.90 57.03 57.46 58.57 59.51 59.68 59.95 59.68 60.60 61.17 61.37 61.81 61.55 61.22 60.35 60.47 60.87 60.47 60.08 56.61 55.69 56.14 57.20 56.16
42.52 44.28 46.33 45.59 44.14 42.72 43.05 41.79 41.46 42.07 43.71 43.18 42.57 41.74 42.60 48.03 51.30 53.06 54.90 56.36 56.80 56.93 57.38 58.36 58.74 59.36 59.89 59.71 59.83 60.91 61.48 61.80 62.07 61.83 60.34 58.97 58.93 58.02 56.98 55.58 55.50 56.06 55.81 54.25
43.93 45.99 44.62 44.32 43.43 43.91 40.05 44.33 43.73 42.78 41.81 38.38 41.86 36.29 40.18 43.55 48.15 50.85 53.06 55.13 56.34 56.98 57.82 59.30 59.70 59.59 60.02 60.52 61.20 61.14 61.51 61.24 61.51 61.21 59.93 58.62 58.98 57.62 57.69 57.33 57.01 55.11 54.62 53.06
43.17 43.82 43.40 42.72 43.65 44.85 42.98 45.24 44.19 43.43 41.53 40.13 39.32 38.45 41.33 42.63 42.90 49.15 52.17 54.51 56.36 57.52 57.92 58.75 60.21 60.94 61.20 61.74 60.94 61.41 61.23 61.20 61.14 60.44 60.64 59.18 59.37 59.61 57.98 57.01 56.07 54.01 52.69 52.11
43.93 46.96 46.34 45.94 46.15 45.59 46.29 44.19 42.21 41.61 40.87 35.70 38.51 38.64 40.48 42.36 44.73 46.17 50.02 54.02 55.77 56.74 56.49 58.38 60.89 61.82 61.68 61.71 61.13 60.84 60.66 60.40 60.85 60.51 59.92 59.11 58.31 56.55 55.53 54.97 53.52 52.24 53.13 51.51
42.34 43.83 46.64 47.76 44.33 45.85 44.46 41.87 35.96 34.02 34.32 33.73 39.47 37.84 42.03 45.83 46.02 47.12 48.34 49.76 54.52 56.67 56.66 56.94 58.63 59.78 60.69 60.01 60.42 60.61 60.42 59.82 60.01 59.72 59.22 58.62 58.31 57.06 56.60 54.99 51.77 50.06 50.94 49.97
37.44 35.40 43.53 47.02 45.48 43.69 42.17 42.38 36.66 29.45 30.74 33.95 38.69 36.20 42.17 47.01 47.82 49.24 49.06 49.02 49.73 53.78 55.48 56.37 58.25 59.34 59.77 59.75 60.29 59.75 59.54 59.77 59.75 59.38 59.51 59.51 58.68 57.96 57.07 55.14 53.06 51.40 51.03 50.63
36.56 37.28 44.72 45.88 47.09 46.34 42.22 39.79 42.65 36.09 34.16 33.94 36.94 40.27 44.78 46.38 48.09 49.22 49.73 49.70 49.31 50.51 53.52 54.80 56.87 58.15 58.99 59.21 59.52 59.53 59.34 59.91 59.47 59.45 59.61 59.46 58.57 58.22 55.18 54.08 53.67 51.61 50.82 47.68
42.45 37.30 43.43 45.40 47.30 46.15 44.03 44.88 38.46 37.53 30.61 29.08 33.70 35.36 38.17 42.86 44.50 47.15 48.76 49.89 51.14 51.83 52.22 53.65 55.26 56.81 58.49 59.22 59.66 60.29 60.47 60.13 60.41 60.16 60.07 59.65 59.57 58.30 56.88 55.53 54.09 52.16 49.70 47.83
42.91 41.48 39.36 44.29 42.74 41.69 41.72 40.48 38.85 39.53 36.36 31.90 30.10 35.32 43.25 43.74 45.14 46.45 48.20 49.59 50.78 52.62 53.50 54.56 56.36 57.38 58.22 59.16 59.39 59.71 60.11 60.26 60.38 60.12 59.90 59.50 58.54 57.72 56.98 54.88 53.75 50.53 48.97 47.41
44.44 41.03 36.04 39.66 43.93 44.97 43.79 42.41 41.27 36.98 33.94 34.23 32.88 35.44 44.22 44.80 44.99 46.00 46.92 49.66 50.94 52.20 54.44 55.41 56.92 58.07 58.21 58.53 59.13 59.29 59.49 59.67 60.22 59.60 57.78 57.64 56.76 54.94 54.43 53.00 52.16 50.77 48.03 46.25
43.92 38.47 34.35 36.31 40.14 43.19 42.03 41.93 40.68 38.65 36.93 34.02 34.62 36.76 43.64 44.70 45.14 45.68 46.45 48.32 51.02 52.22 54.06 55.52 56.50 57.17 58.04 58.55 58.74 58.89 58.99 59.35 59.15 55.98 55.30 54.90 54.29 52.64 52.01 51.11 49.77 47.59 45.89 46.07
45.71 39.65 37.84 34.13 37.51 40.74 38.51 40.12 40.69 40.99 35.71 36.52 35.99 39.57 43.23 45.31 44.95 46.95 46.78 46.55 46.60 51.25 52.28 54.40 55.74 56.64 57.19 57.84 58.50 58.39 57.99 56.75 53.76 52.46 51.58 51.20 50.89 51.04 50.00 48.40 48.01 47.22 46.07 44.19
45.34 38.50 38.43 38.75 39.19 40.24 40.57 40.35 39.41 39.17 40.26 37.85 40.39 37.79 43.12 45.07 45.37 45.42 44.66 46.48 48.31 49.67 50.93 51.64 52.94 54.83 56.32 56.88 57.35 57.28 56.62 54.18 53.05 51.20 50.41 49.09 48.08 47.98 47.71 46.28 44.14 44.15 42.72 41.91
42.88 38.82 38.48 36.99 38.66 39.68 38.95 40.13 39.79 39.45 39.35 39.29 39.31 39.19 44.83 44.98 44.24 43.75 44.09 45.41 45.26 45.44 46.59 48.01 48.88 49.53 49.71 51.76 54.07 53.92 52.23 50.50 50.31 49.37 47.56 46.67 46.52 44.29 41.77 40.70 40.34 40.63 41.03 42.02
40.14 38.20 36.11 34.06 35.71 36.90 33.39 37.81 39.66 40.35 40.94 41.86 37.81 43.73 43.55 42.49 42.77 43.46 43.81 44.26 44.34 44.37 44.19 44.56 45.14 45.35 45.83 47.34 49.33 49.13 48.50 48.22 47.34 46.47 45.74 44.53 42.58 40.69 40.46 40.97 41.06 41.41 41.24 42.34
39.40 37.99 35.28 32.57 31.83 29.07 40.44 41.36 42.04 41.23 41.35 42.09 41.23 42.41 42.65 42.97 42.72 43.27 44.18 44.94 43.20 42.30 41.99 42.05 43.21 43.20 43.35 44.52 45.03 46.07 46.71 45.99 45.31 44.69 43.80 42.55 40.86 40.03 40.62 40.85 41.06 41.16 41.14 40.81
42.01 37.21 32.47 32.62 32.38 35.76 38.29 39.89 40.02 39.15 40.48 42.58 42.46 41.84 41.66 42.45 43.86 41.25 40.56 42.20 41.00 40.21 39.83 39.92 40.70 40.87 41.22 41.47 42.50 42.53 42.19 42.32 41.94 41.12 41.05 41.44 41.83 41.09 41.02 40.71 40.55 41.04 40.73 40.77
37.82 38.56 39.14 30.27 30.92 29.52 39.08 41.77 42.41 42.76 35.49 42.88 42.13 41.22 41.19 42.96 40.49 42.74 40.00 39.39 38.71 39.08 39.50 39.16 39.49 39.89 40.00 39.91 41.44 40.98 40.35 40.64 39.94 40.89 41.42 42.17 42.34 41.67 41.61 41.20 39.70 38.98 39.75 38.95
34.36 33.72 33.66 29.91 33.40 35.51 40.70 41.86 42.97 35.68 39.22 42.70 42.70 42.96 43.48 42.23 42.77 42.32 39.33 38.06 38.51 38.09 37.67 38.71 39.14 38.36 38.90 40.63 41.28 40.08 40.31 39.77 41.41 42.48 42.91 42.37 41.00 40.15 39.34 38.11 38.02 38.50 37.87 37.15
36.30 34.20 32.79 31.82 32.74 32.58 42.28 40.11 38.83 44.36 42.60 43.23 43.60 44.45 43.60 39.71 38.06 38.07 37.68 36.91 36.95 37.04 37.34 38.61 38.00 37.82 39.29 40.78 40.59 39.71 39.45 41.32 41.51 39.61 37.44 37.01 37.32 37.06 37.04 36.97 36.71 36.43 35.99 35.00
36.61 39.52 37.89 38.71 39.18 44.71 43.02 45.71 44.74 43.94 44.41 43.35 44.41 43.96 41.34 38.51 37.69 37.04 35.94 36.28 36.43 36.93 37.15 38.24 37.88 37.62 38.50 39.34 39.68 37.36 37.15 38.06 37.41 36.52 35.73 35.71 35.39 34.87 34.90 34.75 34.62 34.63 34.93 34.05
38.87 40.78 40.33 40.79 42.65 42.68 43.39 44.22 44.50 44.45 44.46 44.12 45.38 44.41 41.75 38.98 37.53 35.95 35.82 35.64 35.54 36.44 36.45 37.10 36.50 35.15 34.55 35.70 35.56 35.22 35.40 35.40 35.52 34.46 34.17 34.40 34.19 34.01 34.20 34.27 33.91 33.34 32.79 31.87
41.00 41.17 39.29 39.29 41.07 42.04 43.88 43.89 44.30 42.43 42.78 41.71 42.02 41.75 40.32 38.30 36.48 36.15 35.22 34.98 35.24 35.23 35.54 35.92 34.51 33.87 33.15 33.29 32.61 33.27 34.28 35.36 33.83 32.90 31.96 31.59 30.91 30.39 30.29 30.16 29.71 28.90 30.07 29.79
41.46 40.35 38.11 38.66 44.27 44.89 45.22 46.10 42.38 41.38 41.16 41.12 39.16 37.90 38.78 38.35 36.46 36.24 34.90 35.02 34.84 34.26 34.62 33.83 33.26 31.43 30.18 29.43 29.63 30.96 31.79 31.76 31.12 29.06 28.19 26.77 27.24 27.06 27.10 26.60 26.60 26.97 26.33 26.46

GFSCGP_sfc_wetblb_048.txt.gz
Wetbulb
52.42 48.73 46.10 46.32 47.71 47.30 47.10 45.51 44.34 47.76 49.81 49.81 49.16 49.11 51.36 56.84 57.05 55.16 56.26 57.27 58.39 59.14 60.35 60.95 60.29 61.62 62.10 62.63 62.49 62.38 63.22 64.44 64.81 63.72 61.67 60.26 61.03 63.48 65.38 65.81 65.60 64.81 63.72 62.24
49.11 46.46 48.92 49.39 48.91 46.94 47.15 45.39 44.94 47.42 48.17 48.00 47.75 47.67 50.31 55.14 56.09 56.35 56.38 57.25 57.92 59.31 60.15 60.35 61.54 61.71 61.50 61.85 62.70 62.72 62.82 63.85 65.12 64.68 62.99 61.89 61.38 62.99 64.00 65.10 65.02 64.43 63.66 62.49
46.76 47.65 49.66 48.84 47.95 46.26 46.97 45.47 44.85 44.73 47.62 47.81 46.83 46.00 47.48 51.64 55.67 57.09 57.69 58.02 58.46 58.81 59.65 60.33 60.62 61.62 62.80 61.86 62.95 62.64 62.86 63.93 65.07 65.06 63.93 62.52 62.68 63.55 63.08 63.27 62.39 60.11 58.59 60.23
47.77 50.27 48.01 47.92 46.72 47.82 44.04 48.66 46.87 45.94 45.17 40.96 47.02 39.77 45.25 49.01 51.02 53.84 56.23 57.70 58.30 59.15 60.06 61.30 61.61 62.05 62.31 62.97 63.27 63.55 63.53 64.12 65.13 65.57 64.13 62.10 60.23 60.35 62.48 63.43 63.32 62.04 61.64 60.25
46.07 47.71 47.23 46.34 46.99 48.78 45.34 48.56 47.35 46.95 45.45 44.54 44.30 41.39 44.47 47.40 47.23 51.21 55.09 56.81 58.42 59.70 60.53 60.77 62.29 63.34 63.97 63.89 63.95 63.56 63.86 64.14 64.74 65.54 65.28 63.30 61.33 61.68 63.66 63.80 62.58 61.61 60.47 59.74
48.47 50.84 49.99 48.35 49.41 49.45 49.51 47.63 47.18 47.05 45.66 39.06 43.10 42.28 43.05 45.96 47.56 49.74 52.82 56.44 58.15 59.94 60.98 61.40 62.68 64.01 64.30 65.09 64.58 64.77 63.80 63.78 64.66 64.70 64.87 64.54 63.42 62.43 62.36 62.11 61.47 60.75 58.93 57.62
46.41 46.80 49.55 50.34 47.36 49.62 48.71 45.76 38.97 37.39 37.84 37.20 44.08 42.39 44.73 48.59 50.26 51.49 52.13 53.65 56.22 59.79 60.98 61.53 61.81 62.92 63.93 64.49 64.80 64.88 64.43 63.38 64.33 64.22 64.32 64.56 63.81 63.66 62.71 61.82 61.38 60.54 57.79 53.65
41.09 39.18 46.62 49.92 47.68 46.04 46.65 45.71 40.01 32.13 34.53 38.50 42.76 39.32 45.11 50.36 51.66 52.64 54.23 54.81 55.18 55.78 59.66 61.49 62.09 62.86 64.08 64.67 65.25 65.15 63.17 62.57 63.73 64.01 63.83 64.64 63.89 62.78 62.98 63.01 61.69 59.16 55.19 53.66
41.24 41.03 47.83 49.25 50.05 49.43 46.10 43.02 47.38 41.35 40.42 39.03 41.70 44.13 48.29 49.70 50.17 51.44 53.51 53.94 54.67 54.85 57.24 59.88 61.49 62.93 63.88 64.78 64.91 65.24 64.93 64.33 63.78 63.01 63.48 62.73 62.34 61.90 62.35 62.62 60.22 55.43 54.30 54.33
45.76 40.36 46.92 48.32 50.41 49.46 47.89 49.35 41.55 43.23 33.80 32.49 38.88 40.20 42.23 45.41 46.67 49.34 50.44 52.81 55.17 56.13 56.12 57.68 59.11 61.15 63.40 64.61 65.09 65.33 65.33 64.42 64.31 63.93 63.55 62.87 62.04 61.89 62.07 61.74 57.04 55.74 55.58 54.81
47.74 45.16 43.71 47.47 46.05 45.52 45.66 44.56 44.79 44.69 42.45 36.12 34.22 39.82 47.70 47.10 48.95 49.87 51.71 53.18 54.37 56.63 57.43 58.10 59.13 60.48 61.60 63.01 63.85 64.03 64.11 64.30 64.13 64.27 64.24 63.32 62.17 61.90 61.59 60.31 58.93 58.66 57.63 55.25
48.34 45.47 40.87 43.18 47.79 49.09 48.17 46.14 46.36 40.36 38.16 40.92 40.08 40.12 49.28 50.35 50.49 50.86 51.20 53.08 55.67 56.65 57.96 59.01 60.29 61.25 61.33 61.73 62.40 62.82 63.39 63.70 64.09 64.45 64.01 63.57 62.79 61.18 59.99 59.25 58.65 57.34 53.58 51.44
47.69 43.55 38.53 40.04 43.71 46.76 45.06 46.49 46.82 45.82 43.82 40.12 38.33 40.72 48.93 49.83 50.21 51.41 51.17 53.10 54.93 56.02 57.58 59.14 60.30 61.16 61.63 61.84 62.26 62.55 62.98 63.06 63.54 63.48 62.22 61.02 58.64 57.33 55.71 54.46 52.98 51.79 50.20 48.61
48.65 45.24 41.86 37.80 40.97 44.70 42.54 44.39 45.74 44.84 40.65 40.89 41.67 42.90 46.98 49.03 49.58 51.36 51.88 52.12 52.33 53.83 56.93 58.75 59.80 60.58 61.23 61.86 62.40 62.43 61.97 62.46 61.14 59.42 58.30 56.08 55.05 53.81 52.86 51.89 50.21 48.62 48.47 46.23
48.51 42.13 44.18 44.14 44.70 44.58 43.62 43.47 44.53 43.25 44.32 41.32 43.66 44.18 47.08 49.46 50.80 51.52 51.56 50.28 51.61 52.75 55.46 57.29 58.98 60.10 60.92 61.29 61.66 61.58 61.12 60.09 59.44 57.27 55.07 53.32 51.78 51.45 51.65 52.49 51.56 49.69 47.26 45.51
48.52 42.49 44.49 41.99 44.55 43.88 42.06 43.94 44.37 44.86 44.82 45.31 45.48 44.88 50.09 51.83 52.00 50.47 49.82 50.78 51.57 52.51 53.53 54.90 55.80 56.40 56.02 57.07 58.52 57.80 57.06 56.36 56.84 55.41 53.32 51.71 51.29 51.05 49.17 47.42 46.61 46.06 43.87 44.57
45.57 43.96 41.79 38.04 42.89 42.33 36.70 42.61 44.41 45.27 46.87 46.52 43.22 47.52 50.36 49.59 49.72 50.68 50.51 51.14 51.12 51.08 51.53 51.81 51.92 52.37 53.44 54.56 55.62 54.88 54.40 54.40 53.44 52.09 50.60 48.95 47.43 45.95 45.55 45.64 45.08 44.20 45.34 44.60
45.26 44.35 43.45 38.77 36.71 32.69 43.82 47.52 48.23 46.30 47.50 48.87 48.11 49.00 49.77 50.08 50.71 50.02 51.65 51.15 49.50 49.23 49.40 49.93 50.52 50.84 51.67 52.73 52.94 52.93 52.80 51.95 50.99 49.63 47.99 46.85 46.49 45.53 45.55 45.54 45.26 44.40 44.28 43.11
48.45 45.69 40.43 38.22 37.07 41.67 41.69 43.80 44.95 44.61 45.34 49.57 48.54 49.34 49.57 48.60 48.50 46.20 49.68 51.21 49.79 49.39 49.18 49.20 49.63 49.66 50.27 50.22 50.68 50.28 49.57 49.18 48.22 47.06 46.53 46.32 46.46 45.59 45.84 44.26 43.59 44.08 42.18 41.29
45.64 46.17 44.07 37.51 35.86 34.21 43.69 47.98 49.60 48.15 41.96 49.66 49.44 48.59 48.69 47.83 44.18 48.03 47.28 47.21 46.80 47.56 47.83 47.44 48.11 48.25 48.36 48.60 49.43 48.29 47.43 46.92 45.82 46.03 46.10 46.49 46.40 45.74 44.88 43.06 40.69 39.90 41.30 43.65
38.57 39.56 38.79 39.60 38.89 42.50 47.31 47.97 48.71 39.91 43.73 49.89 50.18 50.14 48.81 46.83 49.64 49.91 47.43 46.25 46.85 46.42 46.17 47.04 47.57 46.90 47.29 48.15 48.10 46.57 46.00 44.98 45.78 46.13 45.89 44.88 44.18 41.56 39.66 39.52 41.93 42.95 42.55 41.53
39.24 38.52 38.43 40.87 38.28 36.00 47.78 45.63 44.29 50.08 50.49 51.23 50.74 51.01 49.81 50.18 48.06 46.55 45.87 44.61 44.23 44.34 44.54 45.68 45.40 45.41 46.56 47.33 46.92 45.46 44.30 45.43 45.28 43.89 41.04 39.38 40.13 40.34 40.87 40.61 40.68 40.31 40.04 38.88
39.51 44.76 43.40 43.23 43.86 50.58 49.28 50.68 51.51 52.94 52.02 50.41 51.39 50.98 50.96 46.75 46.08 45.35 44.05 43.84 44.01 44.31 44.75 45.30 44.57 43.95 44.89 45.66 45.64 43.28 43.02 43.39 42.40 41.17 40.14 39.48 39.09 39.17 39.52 39.57 39.08 39.11 38.76 37.68
44.90 46.02 43.58 43.26 48.45 48.91 50.10 51.02 50.74 50.87 51.33 51.01 51.83 51.35 49.62 47.00 45.73 44.48 43.78 43.31 43.36 44.16 43.99 44.12 42.83 41.44 40.62 41.64 41.48 40.92 40.64 40.52 39.68 38.53 38.20 38.57 37.42 37.86 37.63 38.08 36.56 35.22 34.05 32.61
46.79 44.71 45.01 45.95 49.07 46.89 49.09 51.01 52.05 49.79 49.44 49.23 50.44 50.78 48.84 47.45 45.12 44.43 43.06 42.75 43.30 43.29 42.64 42.80 41.07 39.71 38.48 38.64 37.97 38.83 39.43 39.56 37.75 36.98 35.98 35.38 34.76 33.69 33.78 33.09 32.14 31.12 31.30 28.71
46.52 45.80 44.10 44.12 50.23 49.29 51.62 53.13 52.84 50.04 48.37 48.95 49.13 48.20 48.72 47.29 44.80 44.26 42.87 42.98 42.11 41.38 41.29 40.06 39.28 37.45 36.02 35.86 35.19 36.26 37.51 37.50 35.80 33.21 32.13 30.75 31.98 31.97 31.91 31.65 31.97 26.26 25.76 25.07

GFSCGP_sfc_wetblb_051.txt.gz
Wetbulb
52.39 48.79 46.67 49.29 49.70 48.57 47.31 46.06 45.13 47.51 51.40 50.07 49.97 50.16 51.66 56.69 56.90 56.51 56.74 57.53 57.86 59.16 61.12 61.29 60.92 61.26 61.00 62.45 62.24 62.50 62.63 63.40 63.46 62.39 60.93 59.53 60.69 61.84 62.96 64.38 65.66 65.92 65.87 65.29
50.43 46.65 50.68 51.04 49.96 48.11 47.01 45.98 45.31 48.28 50.00 49.37 48.00 48.83 50.43 55.25 56.28 56.42 56.81 57.43 57.82 58.85 60.10 60.03 60.66 61.68 61.70 61.88 62.58 62.56 62.58 62.95 64.26 63.79 62.69 61.73 61.05 61.72 62.43 64.21 65.61 65.73 65.34 64.77
47.72 49.45 51.49 49.11 48.44 46.31 46.60 46.09 45.41 45.83 48.55 49.50 47.72 45.49 48.22 51.41 55.47 56.75 57.00 57.96 58.34 59.01 59.54 60.22 59.41 60.41 61.85 61.85 62.57 62.95 63.54 64.22 64.45 64.67 64.17 62.49 61.74 62.09 61.75 62.83 64.03 64.82 65.32 64.77
49.13 51.53 49.36 48.37 47.36 47.86 43.97 48.86 47.82 46.68 45.55 41.16 48.82 38.94 46.37 49.76 51.55 54.94 56.08 56.62 57.25 58.39 60.49 60.89 61.33 60.96 61.00 61.74 63.40 63.43 63.70 64.08 64.35 65.02 64.17 62.55 60.20 58.81 61.19 62.36 63.70 64.19 64.19 62.91
47.03 48.17 47.94 46.94 48.00 49.52 46.44 49.84 48.07 47.38 45.92 45.19 44.37 42.92 45.03 49.44 48.43 51.39 55.69 57.00 57.75 58.55 59.70 60.74 61.37 62.13 62.98 63.38 63.91 64.45 63.75 63.71 64.31 64.92 64.82 64.03 62.11 61.50 62.42 63.40 63.54 64.22 63.79 63.08
48.71 52.48 50.97 50.04 50.85 50.35 50.55 48.38 47.89 48.08 45.99 39.41 44.46 43.32 42.87 46.33 48.13 50.31 53.40 56.15 58.05 58.67 59.70 60.68 62.58 63.11 63.33 64.40 64.81 64.93 63.67 63.60 64.29 64.88 64.82 64.85 63.80 62.55 61.28 63.43 63.00 63.36 63.53 62.83
47.02 48.47 51.04 51.34 48.25 50.84 49.53 46.13 39.26 37.72 38.45 37.83 45.68 43.51 44.41 48.19 51.07 51.15 51.88 54.09 57.15 58.95 59.53 60.24 60.88 61.99 63.25 64.11 64.84 65.24 63.84 62.87 63.94 64.48 64.77 64.94 64.67 64.20 63.05 62.68 63.46 62.15 61.55 61.33
42.12 40.77 47.99 50.75 48.56 47.70 47.12 46.35 40.64 33.41 35.67 38.72 45.66 40.33 44.88 51.63 52.39 52.61 53.71 55.13 56.31 57.59 59.83 60.40 61.12 61.89 63.20 64.78 65.20 64.90 64.59 64.00 63.68 62.28 63.36 65.40 65.26 65.59 64.66 64.26 63.76 62.97 62.36 62.25
43.04 43.07 49.71 50.03 50.87 49.88 47.36 43.95 48.97 42.59 44.26 39.93 43.46 45.48 50.05 51.49 49.77 51.57 52.55 54.58 55.96 57.36 57.95 59.71 61.61 62.66 63.31 65.14 66.11 66.17 65.27 65.22 64.90 62.98 62.22 61.92 65.13 65.80 64.71 64.74 65.15 63.91 63.38 58.03
46.99 42.02 47.50 48.71 50.71 50.74 48.84 50.68 43.06 44.30 34.77 33.79 40.35 42.39 42.94 46.81 47.96 49.38 50.56 52.51 55.62 57.45 57.41 58.79 60.86 62.36 63.62 65.04 66.93 66.99 66.64 65.65 65.51 65.01 64.63 64.32 65.05 64.96 64.48 64.14 63.36 62.80 60.08 57.54
48.97 45.92 44.99 48.59 46.60 45.92 46.79 46.06 46.90 46.22 43.40 36.69 36.43 41.12 49.13 48.10 49.39 49.57 51.14 52.44 53.63 56.80 58.27 58.91 59.87 61.44 62.89 64.63 65.79 66.59 66.81 66.42 66.18 66.06 65.60 64.67 63.67 63.74 62.54 61.81 61.53 59.74 59.27 58.24
49.13 46.74 42.64 44.65 49.44 50.56 49.02 47.19 47.28 41.54 40.67 43.09 41.62 41.69 50.75 50.93 51.29 51.74 52.20 52.63 54.42 55.66 58.81 60.22 60.92 60.89 61.98 63.22 64.60 65.33 65.87 65.75 65.85 65.93 65.77 64.42 62.91 62.18 61.31 60.70 59.59 59.09 58.15 55.07
48.95 44.54 39.61 41.79 46.09 48.94 47.07 48.51 48.62 48.25 46.70 41.48 38.64 41.26 51.04 51.12 50.85 51.78 51.91 52.94 54.27 56.05 57.17 59.99 61.55 61.66 61.95 62.63 63.51 64.11 64.63 64.77 65.34 65.43 65.01 62.98 59.82 59.27 57.65 55.55 53.90 53.43 52.45 50.94
49.00 46.18 42.89 39.15 42.54 45.99 43.76 45.52 47.01 46.27 42.57 41.93 41.96 43.73 47.65 49.62 49.93 51.68 52.60 53.51 54.62 56.35 56.94 57.97 60.06 61.64 62.36 62.83 62.99 63.46 63.74 64.32 64.32 63.86 62.97 59.14 57.49 56.34 55.05 53.87 52.23 50.59 48.82 47.01
49.08 43.26 44.57 44.77 45.95 46.12 45.38 45.12 45.44 44.37 45.29 42.05 44.18 44.25 47.74 49.45 50.78 51.98 53.21 53.47 53.11 53.72 55.53 57.80 58.89 60.64 61.73 62.44 63.21 63.66 61.64 61.45 60.49 57.75 55.69 54.20 54.70 54.71 53.42 52.31 51.42 49.94 48.23 47.23
49.69 43.53 45.14 42.44 45.38 45.06 43.09 45.04 45.08 45.23 45.63 45.65 45.78 45.19 50.64 51.59 51.91 52.03 52.68 52.47 52.59 53.84 55.08 57.57 59.63 61.16 61.74 62.23 62.45 61.13 60.37 60.41 60.25 58.04 55.95 55.34 55.07 54.63 52.80 51.62 51.07 50.39 48.74 48.51
46.03 45.33 42.73 39.13 44.11 44.06 39.93 43.78 44.71 45.38 46.58 46.42 43.24 47.52 50.64 50.29 50.59 51.33 51.95 52.75 53.29 54.69 55.70 56.99 58.38 58.68 58.85 59.77 59.27 57.96 57.64 57.73 56.32 54.97 53.64 52.33 51.32 49.92 49.12 48.99 48.53 48.21 47.68 48.03
45.76 45.22 44.15 39.93 39.17 33.42 44.06 48.90 48.20 46.32 47.31 48.42 48.44 49.42 50.64 50.65 51.69 52.63 53.65 53.61 54.17 54.70 55.15 55.24 55.51 55.68 56.49 57.16 56.44 56.25 55.91 54.72 53.27 51.90 50.61 50.22 49.51 48.73 48.65 48.55 47.43 47.02 47.14 46.68
48.92 46.29 41.80 38.50 38.29 41.65 44.33 46.67 46.82 45.74 45.34 49.37 48.81 50.23 50.96 51.58 51.74 51.20 53.16 54.94 54.64 54.07 54.08 53.99 54.61 54.68 54.83 54.64 54.82 54.01 53.09 52.38 51.11 50.13 49.56 49.16 49.13 48.36 47.82 47.01 46.22 45.87 45.43 42.91
46.99 48.07 43.75 41.08 35.90 33.33 43.73 48.35 51.11 50.35 42.87 50.41 50.72 50.35 49.67 50.25 46.18 49.27 52.75 53.88 53.33 53.37 53.06 52.52 52.97 53.43 53.07 53.05 53.33 51.85 50.71 50.16 49.09 48.98 48.89 49.28 48.98 47.36 45.25 44.72 42.94 41.99 44.49 44.56
40.97 42.55 39.95 40.54 38.87 42.11 47.98 49.60 51.80 41.60 43.96 51.62 51.34 50.89 50.83 49.05 50.97 53.17 53.59 51.89 52.16 51.86 51.65 51.94 52.06 51.61 51.80 52.27 51.85 50.23 49.55 48.37 48.79 49.04 48.31 46.94 46.12 45.13 44.14 42.13 43.79 44.26 43.37 42.88
39.68 38.93 39.59 41.47 38.97 36.63 50.84 49.55 45.53 50.64 54.00 53.28 53.17 52.92 52.24 52.54 52.67 51.69 50.96 50.39 50.50 49.99 49.81 51.04 50.48 50.21 51.09 51.56 50.55 48.78 47.71 48.48 48.12 46.95 45.37 44.00 43.35 43.02 43.88 43.40 42.12 41.47 41.56 40.54
39.66 44.14 42.57 44.02 44.19 51.23 51.32 51.77 53.32 54.45 53.66 54.56 54.13 53.90 53.59 52.79 51.27 50.51 49.70 49.35 49.13 49.13 49.75 50.16 49.63 49.01 49.80 50.29 49.82 47.55 46.99 46.63 45.45 44.70 43.63 42.54 41.78 41.33 41.50 40.88 40.43 40.73 39.82 38.06
46.22 48.58 46.08 45.70 48.65 50.28 52.31 52.68 54.00 54.69 54.61 55.30 55.30 54.10 53.89 52.32 51.37 49.94 49.23 48.69 48.54 49.29 49.01 49.41 48.22 47.30 47.01 48.02 47.48 46.39 45.74 45.20 43.65 41.84 40.99 40.83 40.43 39.49 39.49 39.40 37.38 36.39 35.01 33.82
45.80 47.09 45.56 45.60 47.81 49.99 51.74 52.68 53.75 54.20 54.38 53.94 53.37 53.87 53.51 52.61 50.46 49.47 48.35 48.42 48.78 48.70 48.30 47.86 46.84 45.57 44.41 44.46 43.54 43.45 43.19 42.93 40.92 39.98 39.18 38.36 37.04 36.64 35.69 34.97 33.69 32.81 30.13 28.65
46.73 45.73 43.70 43.73 48.36 50.31 51.25 53.51 54.48 54.37 53.74 53.07 52.32 52.39 53.35 52.34 50.12 49.51 48.19 48.49 48.23 47.55 46.93 46.01 44.83 43.19 41.62 41.30 41.08 41.72 41.90 41.20 39.01 36.63 35.48 34.87 34.62 34.16 34.57 33.84 31.40 26.64 27.24 26.10

GFSCGP_sfc_wetblb_054.txt.gz
Wetbulb
50.40 45.89 43.22 46.59 48.88 48.95 47.44 45.17 44.09 47.48 51.05 49.46 49.21 49.65 50.61 52.11 55.01 54.76 55.71 55.34 56.53 57.04 58.59 58.82 58.17 57.96 57.37 57.48 58.16 57.26 57.35 57.67 56.96 58.60 57.90 57.88 58.34 58.87 59.10 60.48 62.77 63.48 63.42 63.60
47.62 44.23 48.67 50.43 50.42 48.66 46.99 44.74 44.37 47.47 50.30 48.41 47.13 47.24 51.38 53.64 53.36 55.33 55.22 55.66 56.06 57.67 58.11 58.47 58.11 58.00 57.83 57.57 58.20 58.37 58.46 57.08 57.97 59.93 60.19 58.48 58.76 59.98 60.15 60.97 62.73 63.76 63.77 63.65
45.66 47.96 51.35 49.34 48.39 46.20 45.75 44.10 44.45 45.30 48.06 49.15 46.95 44.78 46.92 52.27 54.01 55.18 56.02 57.30 57.28 57.55 57.77 57.75 58.23 57.84 58.84 59.27 59.61 59.89 60.31 59.82 60.36 61.27 61.44 60.61 59.22 59.28 59.55 60.12 61.89 62.80 62.96 62.76
47.78 50.73 49.62 48.46 46.87 47.43 43.23 47.25 47.12 46.64 45.19 40.39 47.44 38.23 45.12 48.54 50.49 53.49 54.24 55.90 56.64 57.69 59.20 58.76 58.56 58.95 59.07 60.54 61.26 61.47 61.64 61.66 61.78 62.64 61.62 60.30 58.27 56.24 58.21 59.06 61.47 62.15 63.33 62.71
46.31 47.99 47.49 46.47 46.91 49.19 45.84 49.62 48.04 46.48 44.07 43.79 44.18 41.01 44.11 48.41 47.47 50.69 53.85 55.02 56.54 57.81 58.97 58.82 58.66 59.30 60.76 61.16 61.07 61.49 62.02 62.02 62.28 62.90 62.90 61.07 59.48 58.82 58.70 60.03 60.03 62.05 62.75 62.50
48.24 51.88 50.07 48.76 50.00 49.92 50.60 48.10 47.81 47.02 44.59 38.13 42.82 41.84 42.21 45.57 47.74 49.90 53.54 55.35 56.14 57.17 58.88 60.08 60.54 60.21 60.24 60.94 61.53 61.74 61.89 61.91 62.38 63.15 63.31 62.19 60.67 59.82 58.66 59.57 59.98 61.48 61.76 61.24
46.34 46.74 49.91 51.01 47.46 50.06 48.62 45.23 38.07 36.39 36.37 36.38 44.76 42.58 44.79 48.74 50.37 51.15 51.92 54.35 56.39 57.42 57.76 59.09 59.89 60.24 60.47 59.90 60.54 61.81 61.92 61.65 62.24 62.28 62.95 62.26 62.44 62.06 60.17 60.05 60.62 60.75 60.79 60.42
41.16 39.05 46.47 50.28 48.23 46.13 46.51 45.14 39.51 31.89 33.62 37.49 44.20 40.10 43.74 50.41 52.22 53.12 53.26 54.64 56.20 57.26 58.17 58.49 59.87 60.87 61.21 61.62 61.86 61.71 61.71 61.57 62.40 62.18 62.84 62.70 62.69 62.73 61.71 61.30 60.87 61.04 60.91 60.56
41.28 41.41 48.42 49.97 50.20 49.07 46.68 42.35 47.69 42.57 42.54 39.46 41.71 43.79 48.82 50.93 50.71 50.72 51.71 52.96 54.35 55.89 57.81 58.52 59.57 60.55 61.70 62.04 62.44 62.81 62.57 62.02 62.06 62.23 62.16 61.49 61.89 61.36 61.56 61.72 62.04 61.04 61.35 60.30
45.98 41.29 47.50 48.98 50.32 49.74 47.23 49.82 41.91 42.92 34.13 32.57 39.60 41.50 42.18 46.98 47.89 49.54 50.30 52.56 54.94 57.48 57.91 57.67 59.21 60.48 61.88 63.06 63.65 64.12 63.82 63.43 63.25 62.33 62.12 61.74 61.76 61.14 60.73 59.90 62.44 61.89 59.65 57.48
47.78 44.96 44.83 47.70 45.46 44.29 45.02 44.05 46.38 45.68 42.86 36.02 34.73 39.69 48.46 48.43 49.75 49.28 51.81 52.64 54.06 56.77 57.77 58.17 59.41 60.86 61.95 62.87 63.68 64.70 64.46 64.25 63.77 62.41 62.08 61.66 60.50 61.06 62.22 62.35 61.24 61.44 59.10 57.99
48.30 46.35 41.04 43.55 48.30 49.30 47.89 45.99 46.26 40.41 39.23 42.96 40.45 39.90 50.73 51.97 51.66 51.93 51.98 52.93 56.06 55.95 58.19 59.18 59.60 60.05 60.71 62.47 63.85 64.62 64.84 64.86 63.67 63.33 62.49 62.44 63.00 62.73 61.62 60.37 59.26 58.68 57.32 56.79
47.58 43.46 38.40 39.82 44.99 48.05 45.14 47.06 47.30 47.05 46.08 41.33 36.74 39.93 50.53 51.16 51.12 52.36 52.02 52.87 53.56 55.43 57.46 58.99 59.97 60.02 60.62 61.54 62.69 64.35 64.78 64.81 63.64 62.00 61.85 61.85 61.09 58.58 56.57 55.19 54.29 53.43 52.01 50.29
48.46 45.48 42.22 37.43 40.83 45.26 43.49 45.25 47.26 46.07 40.57 41.17 41.66 43.78 48.19 49.08 49.74 50.44 51.73 52.91 53.02 54.53 55.59 58.05 59.48 60.28 61.04 61.74 62.59 63.25 63.71 63.90 62.06 59.70 59.48 58.17 56.56 54.89 53.67 52.22 50.72 49.16 48.32 47.15
48.86 42.11 44.63 44.70 45.16 45.84 45.35 44.68 45.22 44.32 44.76 41.17 43.63 44.10 46.94 49.35 50.21 51.69 52.72 53.25 52.92 53.03 54.71 56.04 58.12 60.18 61.15 61.55 62.19 62.70 61.82 60.11 58.86 57.85 56.23 54.68 54.27 53.33 51.98 50.41 48.93 47.88 47.06 46.22
48.53 42.45 44.40 42.32 44.55 44.40 42.79 45.16 45.09 45.03 44.88 44.66 45.43 45.29 50.37 51.19 51.51 51.83 51.86 52.94 52.35 52.76 53.22 54.72 57.49 59.27 60.37 61.09 61.45 60.72 59.35 58.37 57.86 55.97 54.75 54.76 53.70 53.28 52.12 49.90 48.53 47.34 45.98 45.06
45.50 44.47 41.95 37.55 43.58 42.60 36.72 43.43 44.67 45.20 46.73 45.72 42.41 47.09 50.36 49.40 49.99 50.80 51.35 52.08 52.42 52.77 53.79 55.56 57.48 59.33 60.72 61.26 60.53 59.52 59.13 58.80 56.48 54.74 54.67 53.80 51.96 50.40 49.01 48.83 47.71 46.24 45.86 45.78
44.98 43.93 42.74 37.89 38.33 30.88 43.09 48.32 47.46 45.56 46.40 47.54 47.08 48.03 49.26 50.03 51.31 52.04 53.58 53.71 53.34 54.29 55.52 56.83 58.39 58.55 58.94 59.05 58.39 57.53 56.85 55.08 53.61 52.11 50.99 50.36 49.14 47.89 47.84 47.45 46.15 45.28 44.97 44.57
46.64 43.85 40.18 36.31 36.01 40.66 43.42 45.92 45.70 44.52 44.09 48.57 47.68 48.77 49.61 50.76 52.37 52.82 53.79 55.21 55.36 55.64 56.23 56.43 56.75 57.18 57.29 56.00 55.76 54.82 53.36 52.07 50.73 49.47 49.09 49.06 48.35 47.60 46.73 45.72 44.97 44.49 43.85 42.69
45.56 44.59 40.34 40.51 33.83 30.93 42.67 47.67 49.98 49.63 39.82 49.67 49.66 50.06 50.14 51.07 45.79 48.87 53.17 54.47 54.96 55.22 54.78 54.33 54.95 54.80 54.21 54.05 53.96 52.10 50.61 49.78 48.82 48.63 48.47 48.78 48.33 46.95 44.48 44.05 43.38 42.78 43.32 44.17
37.25 36.81 36.42 37.75 36.34 40.79 46.91 48.60 49.86 39.15 40.88 51.44 51.71 51.61 52.34 49.68 51.40 53.48 53.65 54.03 54.37 53.80 53.23 53.50 53.27 52.30 52.36 52.65 51.82 49.83 49.15 47.88 48.64 48.87 48.31 46.90 45.81 44.84 44.10 42.29 42.30 42.74 41.31 40.72
36.40 34.56 36.53 38.92 36.39 34.03 50.19 48.83 43.49 47.76 51.12 53.91 53.21 54.06 54.42 53.54 53.57 53.07 53.10 52.56 52.42 51.78 51.56 51.96 51.17 50.94 51.47 51.58 50.42 48.69 47.43 48.36 48.16 46.92 45.59 44.82 43.77 43.12 43.12 42.15 40.45 39.88 38.95 36.95
36.71 40.45 38.66 41.89 42.23 49.84 49.90 50.01 52.68 53.15 53.11 53.86 53.99 54.46 54.73 53.32 52.28 52.27 51.26 51.07 50.70 50.65 50.17 51.26 50.33 49.87 50.37 50.60 49.92 47.51 47.08 47.23 45.85 44.25 42.89 42.74 42.51 42.08 41.28 39.38 38.19 37.65 36.97 33.39
44.97 46.83 43.22 43.72 45.90 45.97 50.09 52.00 52.67 53.56 53.12 54.43 54.98 55.35 55.94 52.68 52.06 51.09 50.70 50.13 49.78 49.77 49.30 50.27 49.20 48.25 48.08 49.24 48.90 47.24 46.31 45.44 44.41 42.26 40.71 40.00 38.96 38.47 38.27 37.19 35.44 33.71 30.75 29.66
43.84 45.86 45.00 44.72 46.95 47.61 48.13 50.06 51.91 52.93 54.28 54.44 54.66 54.18 53.38 53.74 52.08 50.92 49.93 49.43 49.21 49.11 49.21 49.12 47.95 47.19 46.98 47.32 45.98 45.90 45.15 44.22 41.49 40.05 39.23 37.69 36.61 35.42 33.61 30.18 30.66 28.20 26.16 26.70
45.82 43.92 41.64 42.55 48.44 48.56 49.72 51.40 54.63 51.32 52.08 53.90 52.81 52.83 53.22 54.09 52.27 51.42 49.78 49.38 49.20 48.76 48.16 47.17 46.75 45.78 44.47 43.68 42.70 42.81 43.03 41.78 39.29 36.81 35.01 32.91 32.19 31.50 32.52 29.71 27.71 28.69 26.70 26.33

GFSCGP_sfc_wetblb_057.txt.gz
Wetbulb
46.24 40.01 38.15 39.82 42.93 44.41 43.95 43.19 40.12 41.50 47.10 46.16 45.79 45.26 45.79 48.46 50.55 51.23 51.57 52.57 52.90 53.84 54.86 54.25 53.99 54.39 53.99 54.23 54.54 54.49 53.81 53.20 53.66 53.11 52.87 53.39 54.16 55.08 57.37 57.88 58.31 60.54 61.25 62.23
43.05 39.56 44.65 46.54 46.05 45.57 45.80 42.20 40.07 43.69 48.89 45.28 42.54 45.06 47.04 48.62 50.58 51.48 52.06 52.37 52.90 53.36 54.50 54.74 54.06 54.36 53.64 53.68 54.68 53.77 53.94 53.01 52.73 53.02 54.17 55.21 55.63 56.18 57.47 57.92 58.26 61.35 61.64 61.88
41.10 44.05 47.73 46.35 44.93 44.51 44.14 41.46 40.35 41.17 44.75 44.02 42.53 39.50 46.02 49.56 50.40 52.55 51.87 53.43 54.55 53.14 53.18 53.77 53.44 53.65 53.83 54.07 54.46 53.83 54.74 54.03 54.41 54.96 56.34 56.55 55.46 56.24 57.14 57.15 56.85 61.05 61.38 61.49
43.84 47.78 46.53 45.51 44.61 45.65 40.46 45.88 44.80 43.52 41.22 35.70 41.94 32.29 40.46 47.21 46.98 51.06 52.29 52.64 53.78 54.17 54.79 54.40 53.94 53.28 53.70 54.16 55.75 55.52 56.24 55.47 55.18 56.96 57.24 56.79 55.51 54.32 56.91 57.47 57.66 59.73 60.97 61.19
42.49 44.73 44.56 43.77 45.60 47.47 43.59 48.40 45.94 44.55 40.05 36.99 38.22 34.89 38.72 46.94 45.45 48.60 51.34 52.50 53.58 54.75 54.88 54.67 54.24 54.87 55.63 55.60 55.65 56.21 56.97 55.59 55.69 56.13 58.23 57.93 57.63 56.46 56.24 57.48 56.47 59.29 60.68 61.06
45.03 48.75 47.04 46.45 48.46 48.26 48.46 46.08 45.11 43.38 39.34 31.54 38.54 36.42 35.81 40.63 44.85 48.95 51.09 52.37 53.62 55.20 55.41 55.84 56.49 56.17 55.97 57.50 57.37 57.65 57.44 57.47 57.02 57.77 58.62 59.04 58.78 56.06 54.86 54.80 55.72 58.45 59.67 60.40
43.75 44.82 47.71 49.17 44.84 47.48 45.16 41.92 32.12 29.70 29.94 28.83 41.87 39.02 39.91 44.81 47.76 49.21 50.38 51.47 53.17 55.00 55.93 55.58 55.65 56.33 56.47 56.81 58.03 58.44 58.62 58.45 59.38 59.15 59.56 59.70 59.62 59.07 57.03 56.54 56.43 57.57 58.96 58.37
37.38 35.67 44.62 47.61 45.43 43.78 42.84 40.83 32.68 27.90 28.57 31.71 42.08 36.19 41.38 47.22 49.40 49.84 49.74 51.56 52.55 53.90 56.20 56.17 56.32 56.67 57.36 57.82 58.12 58.46 58.65 58.85 59.55 59.46 59.87 60.47 60.75 60.62 59.36 58.80 57.97 58.76 59.26 59.82
37.36 38.29 46.79 47.35 47.95 46.86 44.17 38.99 43.69 37.14 40.56 32.76 37.38 42.44 45.55 47.43 47.24 47.87 47.32 48.44 49.73 51.59 54.95 56.71 57.03 57.06 57.26 58.14 58.13 58.72 59.03 59.28 59.74 59.54 59.54 60.50 61.28 59.38 60.27 59.76 60.26 59.31 59.21 58.88
42.36 37.09 45.16 46.93 47.54 47.03 44.68 46.93 38.05 37.76 30.56 28.80 35.69 36.99 36.84 44.06 46.17 46.42 45.70 45.83 47.86 50.71 51.78 54.55 57.83 57.95 58.14 58.25 58.43 58.74 59.77 59.70 59.92 59.94 59.82 59.87 60.52 60.52 59.59 59.22 58.95 59.29 57.40 55.58
44.18 40.45 40.94 45.90 43.48 42.10 41.72 40.96 42.86 41.63 37.81 30.74 28.19 33.37 43.42 44.28 46.98 46.44 46.39 47.45 49.84 51.29 51.89 52.43 53.36 56.91 59.45 59.84 59.42 58.94 58.99 59.62 59.81 60.13 59.93 60.29 60.28 60.45 59.38 57.82 56.99 58.42 56.30 55.98
44.73 41.33 36.53 40.19 46.61 48.10 46.02 42.49 41.86 35.48 35.33 36.77 33.30 34.16 47.14 45.56 47.29 48.97 47.41 48.58 48.73 52.13 52.19 53.28 53.96 54.74 55.72 59.49 59.99 60.10 60.28 60.08 60.39 60.51 60.17 59.96 59.74 59.28 58.85 58.82 58.44 58.81 57.34 56.40
44.06 39.87 34.53 37.71 41.71 45.72 42.82 43.42 44.50 43.48 41.42 36.25 31.02 35.03 47.32 48.58 49.54 49.09 46.95 47.20 48.80 52.21 52.99 53.83 54.72 55.09 55.78 57.36 60.15 61.07 61.52 61.17 61.94 61.33 60.59 59.89 59.85 59.66 58.56 55.94 54.65 54.22 52.90 51.54
46.96 41.02 38.26 33.33 37.21 42.46 39.91 43.11 43.80 42.72 33.92 36.22 36.40 39.88 46.09 46.91 46.99 46.57 46.33 47.12 47.08 49.49 54.06 53.64 54.35 55.05 55.89 57.22 59.09 59.97 59.56 61.83 61.36 60.64 58.99 57.56 56.20 55.10 52.79 51.55 51.22 50.39 49.60 48.35
45.42 38.77 40.51 41.71 43.26 44.27 43.43 43.09 42.82 41.41 42.29 37.96 40.26 41.21 44.63 46.21 45.60 46.83 49.61 49.39 49.14 49.76 52.73 54.47 54.43 55.18 56.23 57.14 58.28 57.24 57.31 57.87 57.63 56.42 55.60 53.56 52.78 52.04 50.74 49.17 48.20 47.70 47.38 46.83
46.18 37.33 39.88 38.34 42.46 43.03 41.73 43.54 43.54 43.36 44.47 43.80 43.62 42.60 48.67 48.82 48.07 47.70 49.05 49.16 49.00 49.14 50.73 53.83 56.23 56.99 57.43 58.40 57.26 56.27 55.17 54.54 54.84 53.82 53.12 52.67 51.92 50.41 49.08 47.66 46.85 45.98 45.20 44.57
41.67 38.77 37.15 33.72 40.74 40.60 34.36 40.08 42.35 43.13 44.10 43.99 39.22 42.32 45.83 47.31 46.75 47.89 47.98 49.59 48.82 48.64 49.00 49.80 55.55 57.51 57.79 58.33 57.22 55.68 55.07 54.63 53.46 52.87 52.72 52.46 51.44 49.19 48.21 47.09 45.87 44.67 43.26 42.59
38.97 39.86 37.20 30.69 33.90 28.87 40.01 44.93 44.53 43.35 45.03 44.97 44.01 43.98 45.26 45.93 47.22 47.10 48.45 48.19 48.63 48.69 50.90 54.87 55.16 56.49 58.19 58.06 57.16 56.56 54.84 53.23 52.90 51.50 49.89 49.50 48.00 47.37 46.57 44.50 43.45 42.39 42.06 41.33
42.89 40.32 33.10 31.98 32.71 37.09 41.10 43.35 42.08 41.47 40.76 45.61 44.25 44.58 45.38 45.95 45.25 45.02 49.09 49.45 49.65 50.66 51.55 52.57 54.44 55.53 53.54 54.39 53.89 52.58 51.66 50.12 48.80 47.89 47.30 47.02 46.29 45.06 44.04 43.18 43.56 42.61 42.32 42.48
39.09 42.23 35.36 31.45 29.22 28.01 37.78 44.60 47.93 47.02 35.68 46.88 46.72 45.87 46.06 44.19 39.62 42.19 47.92 51.03 50.68 50.92 51.87 52.20 52.69 52.49 52.74 51.88 51.68 50.13 48.19 47.57 46.88 47.05 46.69 46.42 45.80 44.32 42.71 42.93 42.79 42.53 41.23 42.08
32.18 32.56 31.86 32.19 31.58 34.58 43.55 46.54 48.43 35.63 35.60 47.55 48.09 47.22 45.95 43.38 44.55 46.91 48.96 49.40 50.12 49.43 50.08 50.35 50.73 50.55 50.22 50.15 49.70 47.59 47.05 46.02 46.84 46.88 46.08 44.49 43.73 42.81 41.69 41.10 40.02 40.39 39.00 36.37
33.45 31.31 30.68 33.14 30.16 28.76 46.31 46.46 40.30 42.68 46.94 48.22 48.70 47.78 46.17 48.06 47.77 48.20 49.00 49.14 48.85 48.11 48.63 48.76 47.95 47.46 47.37 48.65 48.10 45.91 44.60 45.93 45.62 44.47 43.42 42.81 42.27 42.54 41.63 39.54 38.99 37.48 35.44 32.75
33.82 37.10 35.16 36.82 34.85 44.61 46.09 47.53 48.12 47.85 46.80 49.55 49.17 49.06 49.34 47.08 47.23 48.42 47.46 47.58 47.58 47.01 46.47 47.17 46.53 45.81 46.04 46.06 46.49 44.36 44.00 44.40 43.67 42.69 41.68 41.42 41.41 41.05 39.64 35.48 34.21 34.29 33.28 30.14
40.58 43.41 38.29 39.32 42.05 42.94 45.30 47.73 48.81 49.38 48.77 49.96 50.82 50.30 50.83 49.68 48.25 46.65 47.14 46.64 45.97 45.55 45.06 45.61 45.76 44.72 44.31 45.48 45.47 44.37 44.23 43.34 42.04 40.64 39.77 38.39 36.09 35.19 33.36 33.78 32.26 29.30 26.65 26.54
39.31 41.81 39.87 40.03 43.40 44.63 46.98 46.77 48.05 49.03 50.16 49.05 50.55 49.81 49.43 50.96 50.16 47.64 45.94 45.38 45.16 46.05 45.13 46.15 44.80 43.96 43.26 43.90 43.06 43.01 42.74 42.54 39.85 38.22 36.31 35.04 32.13 28.98 27.96 29.07 27.70 25.00 25.66 27.77
41.00 38.51 35.94 36.67 43.86 43.84 46.37 48.24 49.82 48.45 47.92 48.30 49.07 49.21 49.52 49.35 47.44 47.03 45.59 45.42 44.85 44.69 44.50 44.49 43.24 41.91 41.43 40.94 40.43 40.47 40.68 39.48 36.93 33.30 31.75 28.94 28.38 27.75 27.77 26.69 25.18 27.27 26.80 27.05

GFSCGP_sfc_wetblb_060.txt.gz
Wetbulb
44.60 39.30 37.34 38.79 40.23 41.48 40.74 39.15 38.15 41.29 45.66 45.74 44.37 43.48 44.86 48.13 49.32 50.14 49.86 51.43 51.86 51.74 52.51 52.52 52.48 53.20 54.09 54.96 54.27 54.71 53.67 53.96 55.37 54.96 54.34 54.23 54.18 55.80 56.89 57.16 57.69 58.64 59.53 60.20
41.08 38.12 43.05 44.06 43.50 42.26 41.33 39.27 39.64 41.67 46.64 43.86 44.03 44.64 45.43 46.18 49.09 50.40 50.75 52.30 51.93 52.40 51.60 51.89 52.04 52.05 52.72 53.68 54.00 54.31 54.12 53.98 55.13 55.23 54.62 54.20 55.17 55.70 55.45 57.41 57.32 57.17 59.87 60.24
39.69 41.93 45.59 44.19 42.55 41.38 40.89 39.36 40.03 39.95 41.91 42.94 41.74 39.58 44.13 47.65 49.42 50.42 52.66 53.43 53.10 52.70 51.45 51.33 51.71 51.59 52.16 53.00 53.47 54.10 53.49 53.40 53.92 53.84 53.29 52.81 53.15 54.09 53.83 54.81 55.38 56.86 58.46 59.80
41.01 45.59 44.15 43.01 41.71 42.66 38.03 44.30 43.78 42.19 38.50 34.26 40.02 31.24 39.71 44.96 46.28 48.40 50.74 52.20 52.02 53.00 53.26 52.25 51.89 51.77 51.81 52.72 53.83 54.27 53.76 53.26 53.84 53.25 52.77 52.90 52.57 51.94 53.80 54.15 55.16 56.27 59.31 59.79
41.49 43.37 42.63 41.58 42.98 45.17 41.81 46.40 44.06 43.12 38.12 34.97 35.96 32.70 36.35 45.19 44.71 46.62 48.66 51.39 52.41 52.80 53.51 52.61 52.49 52.73 52.95 53.18 53.43 53.07 53.59 53.08 53.70 53.00 53.36 53.32 52.97 53.51 54.53 55.47 55.96 56.06 57.38 59.94
43.39 47.63 45.21 44.86 46.55 46.27 47.68 44.18 43.05 40.92 37.36 31.05 36.23 34.81 33.60 40.60 45.39 47.77 50.11 50.93 52.34 52.74 53.43 53.52 53.82 53.66 52.94 53.61 54.01 52.83 52.72 54.06 53.10 53.37 54.11 54.49 54.12 54.54 54.20 54.27 55.35 56.21 56.89 58.42
41.87 43.45 46.29 46.72 42.70 45.55 44.29 38.53 30.49 29.34 28.78 28.81 39.61 36.44 37.82 42.78 45.32 49.72 50.44 50.71 52.50 53.62 53.58 53.17 52.73 52.55 52.59 52.75 53.76 53.88 53.27 53.79 53.55 53.37 53.88 56.00 55.80 55.90 56.32 54.71 54.65 55.18 56.02 57.72
34.74 33.13 42.37 46.63 43.73 41.60 41.19 39.50 31.53 27.55 26.60 30.13 39.37 34.46 39.53 45.80 46.68 49.39 52.35 52.61 53.10 53.67 54.28 53.98 53.73 53.49 53.55 53.60 53.68 54.40 54.32 54.46 54.55 53.74 53.87 55.14 56.84 57.73 58.16 57.01 55.92 55.65 56.54 57.96
35.86 35.97 45.25 46.19 46.90 44.97 41.90 36.99 42.47 35.52 35.55 30.98 35.04 39.82 44.53 46.71 46.41 45.70 47.06 51.57 51.57 52.98 54.23 54.36 55.25 54.46 54.42 54.77 54.98 55.21 55.47 55.59 56.04 55.04 54.56 55.36 56.95 57.59 58.59 59.62 57.05 56.75 57.87 57.97
40.06 34.54 42.93 45.12 46.49 45.99 44.21 45.43 36.06 35.52 28.05 27.31 32.68 34.22 36.01 42.76 44.53 45.67 45.07 45.29 49.57 52.10 53.96 55.17 55.49 55.65 55.95 55.91 56.38 56.81 57.14 57.10 57.34 57.60 57.48 57.59 58.13 59.09 59.32 58.78 57.66 58.44 57.86 57.08
41.41 38.83 38.61 42.75 41.07 39.71 40.41 38.98 40.37 39.49 35.25 28.75 27.16 31.71 41.54 43.12 45.21 44.55 45.75 46.63 46.34 49.18 53.12 55.15 55.88 56.63 56.84 57.39 57.12 57.23 57.65 57.81 57.95 58.73 58.86 58.49 58.81 59.43 59.19 58.88 57.92 58.27 57.51 55.75
43.43 38.38 34.35 37.87 43.88 45.43 44.60 41.76 40.75 33.89 33.32 34.56 30.98 32.84 44.63 44.55 45.96 46.96 45.97 46.54 49.23 50.38 51.03 53.44 55.54 56.64 56.57 56.71 57.32 57.53 57.81 58.03 58.61 58.96 58.91 58.78 59.01 59.47 58.99 58.94 58.52 58.00 56.35 55.17
43.38 37.38 32.15 34.07 39.97 43.51 41.01 42.09 43.23 41.31 38.94 34.88 30.72 34.83 46.00 45.22 45.65 47.17 46.14 45.85 46.75 49.82 49.90 50.39 51.28 52.89 56.07 57.11 57.28 57.39 57.88 58.01 59.06 59.70 59.63 59.27 59.14 59.31 59.64 58.88 59.63 59.36 55.67 54.32
44.98 41.10 36.35 32.13 34.97 39.85 38.29 40.90 43.06 40.66 32.33 34.38 35.44 39.26 43.10 45.39 46.02 46.72 46.85 46.87 46.32 49.61 51.39 51.60 51.87 52.86 54.00 55.43 57.45 58.15 57.78 58.05 59.19 59.88 59.41 58.91 58.87 59.06 58.51 56.73 54.64 54.02 53.36 51.15
44.26 37.27 38.98 40.23 40.90 41.91 41.54 41.59 41.43 39.77 39.52 35.40 38.07 40.06 43.65 45.41 46.92 47.06 46.98 47.17 47.72 47.35 50.49 51.81 52.30 52.32 54.76 56.66 56.88 58.07 58.96 59.16 59.68 59.42 59.24 58.40 57.96 55.55 53.46 52.62 50.91 49.39 48.93 47.93
43.07 36.40 38.94 36.93 40.94 41.28 39.92 41.65 42.94 42.73 40.68 40.20 40.81 40.57 47.14 47.57 47.04 46.87 47.47 48.15 47.48 46.90 50.31 52.49 53.31 53.81 56.57 56.42 55.36 55.21 55.33 58.19 59.44 58.29 56.43 53.99 53.09 51.54 50.33 49.21 48.92 47.48 46.40 46.48
37.81 37.41 34.94 30.86 37.99 38.98 32.84 39.32 41.38 41.77 42.86 41.57 37.56 42.34 47.25 46.88 47.63 47.08 46.97 48.09 47.62 47.53 47.92 51.80 53.42 54.88 56.87 55.91 55.20 54.22 53.91 55.21 55.32 54.41 53.32 51.99 51.13 49.05 48.23 47.84 46.69 45.13 44.48 44.46
37.17 35.54 35.81 31.29 31.81 27.74 38.93 43.81 43.68 41.87 43.58 44.51 42.90 43.35 46.49 46.40 48.40 46.95 48.63 48.84 47.14 47.27 46.95 49.49 54.22 54.83 56.70 55.85 54.46 53.68 53.54 53.22 52.94 52.68 51.64 50.49 49.42 47.40 46.69 46.09 44.89 45.09 44.25 42.18
43.30 38.19 31.98 30.80 30.52 35.42 39.02 41.68 41.15 40.60 40.67 44.98 44.12 44.40 44.86 45.43 44.68 42.95 47.09 47.77 47.64 47.23 48.13 50.35 53.14 54.69 56.03 55.28 54.27 53.14 52.37 52.08 50.96 49.89 49.59 49.13 48.09 46.62 46.09 44.19 42.98 41.40 40.43 40.32
39.46 39.14 33.92 31.27 28.03 26.40 36.21 43.14 45.93 45.39 34.50 44.31 45.25 45.34 45.39 44.86 36.75 40.83 46.65 48.52 49.02 50.30 52.33 53.15 52.23 52.55 52.99 53.10 52.71 51.85 49.82 48.79 48.19 48.20 47.39 47.42 46.83 45.21 43.24 41.61 40.85 40.99 41.36 41.59
30.07 29.47 29.81 30.92 30.56 32.80 41.37 44.84 46.46 35.53 35.54 45.34 47.07 46.51 45.82 43.39 43.09 45.58 48.06 48.70 49.46 50.34 51.03 51.10 52.42 52.12 49.85 50.10 49.77 47.75 47.15 46.27 46.95 46.78 45.93 44.28 43.59 42.69 42.28 41.49 41.65 40.95 38.21 36.15
30.42 28.64 28.98 31.78 30.70 27.13 44.57 44.98 38.13 40.98 45.30 47.23 47.48 46.24 44.60 46.06 45.11 45.99 48.76 48.68 48.43 48.64 48.57 49.80 49.48 48.62 48.61 48.91 47.83 45.74 44.78 45.52 45.37 45.20 43.14 42.46 42.21 42.34 41.99 40.46 39.85 36.73 34.52 31.99
30.94 35.69 32.59 34.71 33.94 43.11 45.27 45.53 48.11 47.13 45.47 46.80 46.32 47.66 48.22 46.15 45.43 46.68 46.73 47.44 47.97 47.98 46.76 47.53 46.98 45.17 45.13 46.15 46.35 43.39 42.36 43.66 43.02 42.32 41.48 41.31 41.18 40.42 39.40 37.60 35.02 33.62 32.91 30.82
37.13 41.88 37.69 38.02 41.40 43.39 44.72 46.56 48.20 47.84 47.01 48.94 47.81 47.78 47.89 47.50 47.17 46.03 45.82 45.51 45.53 45.75 45.66 44.60 45.13 43.82 42.32 43.68 44.17 43.05 42.92 42.80 41.81 40.57 39.60 39.09 36.29 33.07 32.27 31.87 31.80 30.43 28.33 28.98
37.59 40.77 39.14 38.55 41.60 43.38 44.27 46.29 46.76 47.44 49.16 48.69 48.70 47.23 46.77 47.19 47.43 47.17 46.03 45.24 44.87 44.82 44.84 45.00 43.72 42.77 41.71 42.61 42.13 42.38 42.04 41.94 39.98 37.82 34.05 31.38 31.12 29.21 26.59 25.11 25.52 26.32 26.77 27.70
38.91 38.00 36.23 35.82 42.10 40.94 42.29 45.95 48.54 46.35 46.81 47.93 47.61 47.37 47.84 46.68 47.66 46.83 45.43 45.32 45.60 44.03 44.34 42.83 41.32 40.54 39.84 40.10 40.06 39.94 40.38 38.57 35.08 31.21 29.60 28.53 27.30 26.73 24.83 23.89 24.36 28.46 28.01 28.71